M I D A S
Marine Information and Data Acquisition System
Tripno 885 of the Zeeleeuw from 2005-04-22 07:21:10 to 2005-04-22 12:43:49
Back to CruiseResearch ActivitiesStationsMapUnderway DataData graphs

EquipmentUnitsComment
TimeDGPSUTC
LatitudeDGPSDM.mWGS84
LongitudeDGPSDM.mWGS84
TemperatureSBE03/SBE38deg celciusITS90
ConductivitySBE21S/mITS90
SalinitySBE21 Practical Salinity Units
ChlorophylAChelsea fluorimeterg/lCalibrated in Aceton
Missing or incorrect values are displayed as -999
Sea surface data collected by the RV Zeeleeuw from 2005-04-22 07:20:42 to 2005-04-22 12:55:07
                                                                                    Next 1000 lines
Time Latitude Longitude Temperature Conductivity Salinity ChlorophylA
2005-04-22 07:20:51 51°13.595 2°56.101 17.1099 3.840836 30.961389 -0.74754
2005-04-22 07:20:57 51°13.595 2°56.099 17.0187 3.840836 30.961389 -0.781249
2005-04-22 07:21:01 51°13.596 2°56.096 17.1246 3.840731 30.961044 -0.781249
2005-04-22 07:21:07 51°13.597 2°56.092 17.1543 3.840731 30.961645 -0.781249
2005-04-22 07:21:11 51°13.598 2°56.088 17.1912 3.840731 30.961645 -0.781249
2005-04-22 07:21:18 51°13.6 2°56.081 17.1924 3.840731 30.961645 -0.781249
2005-04-22 07:21:22 51°13.602 2°56.076 17.1364 3.840731 30.961645 -0.781249
2005-04-22 07:21:28 51°13.604 2°56.069 17.1537 3.840626 30.9613 -0.781249
2005-04-22 07:21:32 51°13.605 2°56.062 17.1312 3.840626 30.9613 -0.74754
2005-04-22 07:21:38 51°13.607 2°56.054 17.1591 3.840626 30.960699 -0.781249
2005-04-22 07:21:42 51°13.609 2°56.046 17.1818 3.84052 30.961556 -0.74754
2005-04-22 07:21:47 51°13.611 2°56.037 17.1982 3.84052 30.961556 -0.781249
2005-04-22 07:21:53 51°13.613 2°56.027 17.2042 3.84052 30.961556 -0.781249
2005-04-22 07:21:58 51°13.615 2°56.018 17.2524 3.84052 30.960955 -0.74754
2005-04-22 07:22:01 51°13.617 2°56.012 17.2091 3.840415 30.961211 -0.781249
2005-04-22 07:22:07 51°13.62 2°55.999 17.2195 3.840415 30.961211 -0.814958
2005-04-22 07:22:13 51°13.624 2°55.988 17.2245 3.840309 30.960265 -0.74754
2005-04-22 07:22:18 51°13.627 2°55.978 17.2314 3.840309 30.960265 -0.781249
2005-04-22 07:22:22 51°13.629 2°55.969 17.226 3.840309 30.960265 -0.781249
2005-04-22 07:22:27 51°13.633 2°55.957 17.2576 3.840309 30.960866 -0.781249
2005-04-22 07:22:32 51°13.637 2°55.946 17.2761 3.840309 30.960866 -0.781249
2005-04-22 07:22:38 51°13.641 2°55.935 17.2844 3.840204 30.95992 -0.781249
2005-04-22 07:22:42 51°13.644 2°55.927 17.2736 3.840204 30.960521 -0.781249
2005-04-22 07:22:47 51°13.648 2°55.915 17.2623 3.840099 30.959575 -0.74754
2005-04-22 07:22:52 51°13.652 2°55.906 17.2561 3.840099 30.959575 -0.74754
2005-04-22 07:22:58 51°13.656 2°55.895 17.2542 3.840099 30.960777 -0.781249
2005-04-22 07:23:02 51°13.66 2°55.885 17.2542 3.840099 30.960777 -0.74754
2005-04-22 07:23:07 51°13.663 2°55.876 17.2541 3.840099 30.960777 -0.781249
2005-04-22 07:23:12 51°13.667 2°55.866 17.2497 3.839993 30.960432 -0.781249
2005-04-22 07:23:17 51°13.67 2°55.858 17.2483 3.839993 30.960432 -0.781249
2005-04-22 07:23:23 51°13.674 2°55.847 17.2462 3.839888 30.959486 -0.74754
2005-04-22 07:23:27 51°13.676 2°55.838 17.2431 3.839993 30.961033 -0.781249
2005-04-22 07:23:33 51°13.68 2°55.828 17.2392 3.839888 30.960087 -0.781249
2005-04-22 07:23:37 51°13.682 2°55.82 17.2361 3.839888 30.960087 -0.74754
2005-04-22 07:23:42 51°13.685 2°55.809 17.2536 3.839888 30.960688 -0.781249
2005-04-22 07:23:47 51°13.687 2°55.8 17.2444 3.839888 30.960688 -0.781249
2005-04-22 07:23:52 51°13.689 2°55.79 17.2512 3.839888 30.960688 -0.781249
2005-04-22 07:23:58 51°13.691 2°55.782 17.2675 3.839782 30.960343 -0.74754
2005-04-22 07:24:01 51°13.692 2°55.776 17.261 3.839782 30.960944 -0.781249
2005-04-22 07:24:08 51°13.694 2°55.768 17.3021 3.839782 30.960343 -0.781249
2005-04-22 07:24:12 51°13.695 2°55.765 17.3202 3.839677 30.959998 -0.781249
2005-04-22 07:24:17 51°13.696 2°55.763 17.3323 3.839782 30.960944 -0.814958
2005-04-22 07:24:22 51°13.696 2°55.763 17.3123 3.839782 30.960944 -0.814958
2005-04-22 07:24:27 51°13.697 2°55.765 17.2197 3.839677 30.959397 -0.74754
2005-04-22 07:24:32 51°13.698 2°55.767 16.9467 3.839572 30.959052 -0.74754
2005-04-22 07:24:37 51°13.698 2°55.767 17.1448 3.839466 30.959909 -0.781249
2005-04-22 07:24:42 51°13.698 2°55.767 17.1219 3.839677 30.962402 -0.781249
2005-04-22 07:24:47 51°13.698 2°55.765 17.1533 3.839677 30.962402 -0.781249
2005-04-22 07:24:51 51°13.698 2°55.763 17.1761 3.839466 30.961712 -0.781249
2005-04-22 07:24:56 51°13.697 2°55.76 17.1634 3.839572 30.96386 -0.781249
2005-04-22 07:25:01 51°13.696 2°55.757 17.1263 3.839466 30.962914 -0.781249
2005-04-22 07:25:07 51°13.695 2°55.753 17.2079 3.839466 30.962914 -0.74754
2005-04-22 07:25:12 51°13.694 2°55.749 17.193 3.839361 30.960766 -0.781249
2005-04-22 07:25:17 51°13.693 2°55.746 17.2168 3.839361 30.960766 -0.781249
2005-04-22 07:25:22 51°13.691 2°55.742 17.2347 3.839361 30.960165 -0.781249
2005-04-22 07:25:28 51°13.691 2°55.741 17.2867 3.839361 30.959564 -0.781249
2005-04-22 07:25:31 51°13.691 2°55.74 17.2727 3.839361 30.958362 -0.781249
2005-04-22 07:25:37 51°13.693 2°55.741 17.3101 3.839361 30.959564 -0.781249
2005-04-22 07:25:42 51°13.696 2°55.743 17.3153 3.839256 30.959219 -0.781249
2005-04-22 07:25:47 51°13.7 2°55.743 17.325 3.839256 30.959219 -0.781249
2005-04-22 07:25:52 51°13.705 2°55.743 17.312 3.839256 30.959219 -0.781249
2005-04-22 07:25:57 51°13.71 2°55.742 17.2391 3.839256 30.95982 -0.781249
2005-04-22 07:26:02 51°13.715 2°55.739 17.1864 3.83915 30.96248 -0.781249
2005-04-22 07:26:07 51°13.72 2°55.736 17.2225 3.839045 30.963938 -0.74754
2005-04-22 07:26:12 51°13.725 2°55.732 17.2043 3.839045 30.963938 -0.781249
2005-04-22 07:26:17 51°13.73 2°55.726 17.1338 3.839045 30.963938 -0.781249
2005-04-22 07:26:22 51°13.737 2°55.72 16.9781 3.839045 30.96454 -0.814958
2005-04-22 07:26:27 51°13.743 2°55.714 16.9417 3.83915 30.964283 -0.781249
2005-04-22 07:26:32 51°13.75 2°55.707 16.9637 3.839045 30.962135 -0.74754
2005-04-22 07:26:37 51°13.757 2°55.699 16.9497 3.839045 30.960332 -0.781249
2005-04-22 07:26:41 51°13.763 2°55.693 16.9571 3.838939 30.958184 -0.781249
2005-04-22 07:26:47 51°13.773 2°55.684 16.9395 3.838834 30.957238 -0.74754
2005-04-22 07:26:51 51°13.78 2°55.677 16.9257 3.838834 30.957238 -0.74754
2005-04-22 07:26:56 51°13.789 2°55.668 16.8979 3.838939 30.958184 -0.781249
2005-04-22 07:27:01 51°13.797 2°55.661 16.8854 3.838834 30.957839 -0.781249
2005-04-22 07:27:07 51°13.808 2°55.651 16.8785 3.838834 30.95844 -0.814958
2005-04-22 07:27:12 51°13.817 2°55.643 16.8976 3.838834 30.959041 -0.781249
2005-04-22 07:27:17 51°13.827 2°55.635 16.9388 3.838729 30.959297 -0.781249
2005-04-22 07:27:21 51°13.835 2°55.628 16.9475 3.838729 30.959297 -0.781249
2005-04-22 07:27:27 51°13.847 2°55.618 16.9404 3.838729 30.959297 -0.781249
2005-04-22 07:27:31 51°13.856 2°55.611 16.917 3.838623 30.958351 -0.781249
2005-04-22 07:27:37 51°13.867 2°55.601 16.9171 3.838623 30.959553 -0.781249
2005-04-22 07:27:42 51°13.879 2°55.594 16.9204 3.838623 30.959553 -0.781249
2005-04-22 07:27:47 51°13.888 2°55.586 16.9283 3.838518 30.959208 -0.781249
2005-04-22 07:27:51 51°13.898 2°55.579 16.9683 3.838518 30.959208 -0.781249
2005-04-22 07:27:57 51°13.91 2°55.57 16.9388 3.838518 30.959809 -0.74754
2005-04-22 07:28:01 51°13.918 2°55.563 16.9549 3.838518 30.959809 -0.781249
2005-04-22 07:28:07 51°13.932 2°55.553 17.0127 3.838518 30.959809 -0.781249
2005-04-22 07:28:12 51°13.942 2°55.545 17.0248 3.838518 30.96041 -0.781249
2005-04-22 07:28:16 51°13.952 2°55.539 16.9929 3.838412 30.959464 -0.781249
2005-04-22 07:28:21 51°13.962 2°55.532 17.0023 3.838412 30.959464 -0.781249
2005-04-22 07:28:27 51°13.975 2°55.522 17.0307 3.838413 30.960667 -0.781249
2005-04-22 07:28:32 51°13.986 2°55.514 17.0057 3.838413 30.960667 -0.781249
2005-04-22 07:28:37 51°13.995 2°55.508 17.0115 3.838307 30.959721 -0.781249
2005-04-22 07:28:41 51°14.004 2°55.502 17.0425 3.838413 30.961268 -0.781249
2005-04-22 07:28:47 51°14.017 2°55.492 17.0815 3.838307 30.960322 -0.74754
2005-04-22 07:28:51 51°14.025 2°55.486 17.0624 3.838307 30.960322 -0.74754
2005-04-22 07:28:57 51°14.036 2°55.478 17.0633 3.838202 30.959376 -0.781249
2005-04-22 07:29:02 51°14.045 2°55.472 17.0675 3.838202 30.959376 -0.781249
2005-04-22 07:29:07 51°14.056 2°55.464 17.0926 3.838096 30.959031 -0.74754
2005-04-22 07:29:12 51°14.066 2°55.457 17.1205 3.838096 30.958429 -0.74754
2005-04-22 07:29:16 51°14.075 2°55.45 17.1414 3.838096 30.959031 -0.781249
2005-04-22 07:29:21 51°14.085 2°55.444 17.1086 3.838096 30.959031 -0.781249
2005-04-22 07:29:27 51°14.097 2°55.434 17.1043 3.838096 30.959632 -0.74754
2005-04-22 07:29:31 51°14.107 2°55.428 17.1022 3.837991 30.959287 -0.781249
2005-04-22 07:29:37 51°14.119 2°55.42 17.1429 3.837991 30.958686 -0.74754
2005-04-22 07:29:42 51°14.129 2°55.412 17.1216 3.837886 30.958942 -0.781249
2005-04-22 07:29:47 51°14.142 2°55.404 17.1257 3.837991 30.959888 -0.781249
2005-04-22 07:29:51 51°14.152 2°55.395 17.1332 3.837991 30.959888 -0.781249
2005-04-22 07:29:57 51°14.164 2°55.385 17.1484 3.837886 30.958942 -0.781249
2005-04-22 07:30:01 51°14.172 2°55.377 17.2007 3.837886 30.958942 -0.781249
2005-04-22 07:30:07 51°14.186 2°55.364 17.1896 3.837886 30.959543 -0.74754
2005-04-22 07:30:11 51°14.193 2°55.356 17.1635 3.83778 30.959198 -0.781249
2005-04-22 07:30:17 51°14.206 2°55.341 17.1487 3.837675 30.958252 -0.781249
2005-04-22 07:30:22 51°14.216 2°55.328 17.1438 3.837675 30.958252 -0.781249
2005-04-22 07:30:27 51°14.226 2°55.315 17.1383 3.83778 30.959799 -0.781249
2005-04-22 07:30:31 51°14.234 2°55.303 17.1138 3.83778 30.959799 -0.781249
2005-04-22 07:30:37 51°14.245 2°55.287 17.1124 3.83778 30.9604 -0.781249
2005-04-22 07:30:42 51°14.254 2°55.273 17.0704 3.837675 30.958853 -0.781249
2005-04-22 07:30:47 51°14.264 2°55.257 17.0544 3.837675 30.960055 -0.781249
2005-04-22 07:30:51 51°14.271 2°55.245 17.1239 3.837675 30.960055 -0.781249
2005-04-22 07:30:57 51°14.281 2°55.228 17.149 3.837675 30.959454 -0.781249
2005-04-22 07:31:01 51°14.287 2°55.215 17.0999 3.837464 30.958163 -0.781249
2005-04-22 07:31:07 51°14.297 2°55.195 17.0459 3.837464 30.958764 -0.781249
2005-04-22 07:31:11 51°14.305 2°55.18 16.9869 3.837464 30.958163 -0.74754
2005-04-22 07:31:17 51°14.314 2°55.161 16.9995 3.837359 30.957818 -0.781249
2005-04-22 07:31:20 51°14.321 2°55.148 17.1052 3.837359 30.957818 -0.781249
2005-04-22 07:31:27 51°14.332 2°55.124 17.0377 3.837569 30.959109 -0.781249
2005-04-22 07:31:32 51°14.341 2°55.105 17.0605 3.837359 30.957818 -0.74754
2005-04-22 07:31:37 51°14.351 2°55.086 16.9726 3.837464 30.959365 -0.74754
2005-04-22 07:31:41 51°14.358 2°55.07 17.004 3.837359 30.958419 -0.781249
2005-04-22 07:31:47 51°14.369 2°55.045 17.0345 3.837464 30.959967 -0.781249
2005-04-22 07:31:51 51°14.377 2°55.026 16.9535 3.837464 30.959967 -0.781249
2005-04-22 07:31:57 51°14.387 2°55.002 16.9726 3.837359 30.958419 -0.781249
2005-04-22 07:32:01 51°14.394 2°54.984 16.9834 3.837359 30.959622 -0.781249
2005-04-22 07:32:07 51°14.405 2°54.958 16.8557 3.837253 30.958675 -0.781249
2005-04-22 07:32:11 51°14.413 2°54.938 16.9602 3.837148 30.957729 -0.781249
2005-04-22 07:32:17 51°14.424 2°54.913 17.0557 3.837253 30.958675 -0.781249
2005-04-22 07:32:22 51°14.433 2°54.892 17.0529 3.837253 30.958675 -0.781249
2005-04-22 07:32:27 51°14.445 2°54.864 17.1108 3.837042 30.956783 -0.781249
2005-04-22 07:32:31 51°14.451 2°54.843 17.1216 3.837253 30.959277 -0.781249
2005-04-22 07:32:37 51°14.46 2°54.814 17.0627 3.837253 30.960479 -0.781249
2005-04-22 07:32:41 51°14.465 2°54.792 17.0445 3.837043 30.959789 -0.781249
2005-04-22 07:32:47 51°14.472 2°54.758 16.9749 3.837148 30.961337 -0.781249
2005-04-22 07:32:51 51°14.475 2°54.732 16.9764 3.837148 30.961337 -0.781249
2005-04-22 07:32:57 51°14.48 2°54.7 17.0325 3.837043 30.960391 -0.781249
2005-04-22 07:33:01 51°14.482 2°54.676 16.9762 3.837043 30.960391 -0.74754
2005-04-22 07:33:07 51°14.485 2°54.636 17.0265 3.837148 30.961337 -0.781249
2005-04-22 07:33:11 51°14.486 2°54.612 17.0427 3.836937 30.960046 -0.781249
2005-04-22 07:33:17 51°14.487 2°54.578 16.9898 3.836937 30.960046 -0.781249
2005-04-22 07:33:21 51°14.486 2°54.554 16.9556 3.836937 30.960046 -0.781249
2005-04-22 07:33:27 51°14.484 2°54.517 16.9377 3.836832 30.959701 -0.74754
2005-04-22 07:33:32 51°14.482 2°54.483 16.9267 3.836832 30.959701 -0.781249
2005-04-22 07:33:37 51°14.481 2°54.455 16.9419 3.836937 30.960046 -0.781249
2005-04-22 07:33:42 51°14.479 2°54.427 16.9731 3.836832 30.959701 -0.814958
2005-04-22 07:33:46 51°14.476 2°54.396 16.956 3.836832 30.959701 -0.781249
2005-04-22 07:33:51 51°14.474 2°54.369 16.9835 3.836832 30.959701 -0.781249
2005-04-22 07:33:57 51°14.469 2°54.332 16.9406 3.836832 30.959099 -0.781249
2005-04-22 07:34:02 51°14.464 2°54.302 16.9643 3.836726 30.959356 -0.814958
2005-04-22 07:34:07 51°14.457 2°54.269 16.8894 3.836832 30.960302 -0.781249
2005-04-22 07:34:11 51°14.453 2°54.245 16.92 3.836621 30.95901 -0.814958
2005-04-22 07:34:17 51°14.446 2°54.213 16.932 3.836621 30.95901 -0.74754
2005-04-22 07:34:21 51°14.441 2°54.189 16.84 3.836621 30.95901 -0.74754
2005-04-22 07:34:27 51°14.432 2°54.154 16.8991 3.836726 30.959356 -0.781249
2005-04-22 07:34:32 51°14.425 2°54.124 16.9141 3.836516 30.958064 -0.781249
2005-04-22 07:34:37 51°14.418 2°54.095 16.9531 3.836621 30.959612 -0.781249
2005-04-22 07:34:42 51°14.41 2°54.066 16.9477 3.836516 30.958064 -0.781249
2005-04-22 07:34:47 51°14.402 2°54.038 16.8586 3.83641 30.95832 -0.781249
2005-04-22 07:34:51 51°14.393 2°54.012 16.9528 3.83641 30.95832 -0.781249
2005-04-22 07:34:56 51°14.383 2°53.985 16.8424 3.836621 30.960815 -0.781249
2005-04-22 07:35:01 51°14.373 2°53.961 16.8264 3.83641 30.960125 -0.814958
2005-04-22 07:35:07 51°14.361 2°53.928 16.8382 3.836516 30.96047 -0.781249
2005-04-22 07:35:12 51°14.35 2°53.901 16.7661 3.83641 30.960125 -0.781249
2005-04-22 07:35:16 51°14.34 2°53.877 16.8207 3.836516 30.959868 -0.74754
2005-04-22 07:35:22 51°14.33 2°53.849 16.8479 3.836516 30.959868 -0.74754
2005-04-22 07:35:27 51°14.317 2°53.817 16.8802 3.83641 30.959523 -0.781249
2005-04-22 07:35:31 51°14.31 2°53.795 16.7947 3.836305 30.958577 -0.74754
2005-04-22 07:35:37 51°14.298 2°53.765 16.8917 3.836305 30.958577 -0.781249
2005-04-22 07:35:42 51°14.289 2°53.739 16.839 3.836305 30.958577 -0.781249
2005-04-22 07:35:47 51°14.279 2°53.709 16.8585 3.836305 30.958577 -0.781249
2005-04-22 07:35:51 51°14.27 2°53.684 16.8868 3.836305 30.959178 -0.781249
2005-04-22 07:35:56 51°14.26 2°53.656 16.8921 3.836199 30.959435 -0.781249
2005-04-22 07:36:02 51°14.249 2°53.625 16.9211 3.836199 30.960036 -0.781249
2005-04-22 07:36:07 51°14.238 2°53.595 16.916 3.836199 30.960638 -0.781249
2005-04-22 07:36:11 51°14.229 2°53.573 16.8957 3.836094 30.959691 -0.781249
2005-04-22 07:36:17 51°14.219 2°53.542 16.871 3.835989 30.959346 -0.781249
2005-04-22 07:36:22 51°14.209 2°53.516 16.8588 3.835989 30.959346 -0.781249
2005-04-22 07:36:27 51°14.198 2°53.486 16.8989 3.836094 30.959691 -0.814958
2005-04-22 07:36:31 51°14.189 2°53.461 16.8006 3.835989 30.959346 -0.74754
2005-04-22 07:36:38 51°14.177 2°53.426 16.9325 3.835883 30.958399 -0.781249
2005-04-22 07:36:42 51°14.169 2°53.404 16.7779 3.835989 30.959346 -0.781249
2005-04-22 07:36:47 51°14.158 2°53.372 16.8998 3.835883 30.959001 -0.781249
2005-04-22 07:36:51 51°14.149 2°53.347 16.8372 3.835883 30.959001 -0.781249
2005-04-22 07:36:57 51°14.139 2°53.316 16.9085 3.835778 30.958054 -0.74754
2005-04-22 07:37:01 51°14.131 2°53.293 16.8464 3.835989 30.960549 -0.781249
2005-04-22 07:37:07 51°14.119 2°53.256 16.8799 3.835673 30.958311 -0.74754
2005-04-22 07:37:11 51°14.111 2°53.236 16.8885 3.835778 30.959258 -0.74754
2005-04-22 07:37:17 51°14.1 2°53.202 16.886 3.835673 30.958912 -0.781249
2005-04-22 07:37:22 51°14.09 2°53.173 16.8742 3.835673 30.958912 -0.781249
2005-04-22 07:37:27 51°14.08 2°53.145 16.8422 3.835567 30.957966 -0.781249
2005-04-22 07:37:31 51°14.071 2°53.119 16.92 3.835673 30.959514 -0.74754
2005-04-22 07:37:37 51°14.061 2°53.088 16.8391 3.835673 30.958912 -0.781249
2005-04-22 07:37:42 51°14.052 2°53.061 16.9125 3.835567 30.959169 -0.781249
2005-04-22 07:37:47 51°14.041 2°53.031 16.7598 3.835462 30.958222 -0.74754
2005-04-22 07:37:51 51°14.032 2°53.004 16.9003 3.835462 30.958222 -0.74754
2005-04-22 07:37:57 51°14.022 2°52.973 16.8272 3.835462 30.957621 -0.781249
2005-04-22 07:38:02 51°14.013 2°52.946 16.8535 3.835462 30.958824 -0.781249
2005-04-22 07:38:07 51°14.003 2°52.915 16.9136 3.835462 30.958824 -0.781249
2005-04-22 07:38:12 51°13.993 2°52.886 16.8186 3.835462 30.958824 -0.74754
2005-04-22 07:38:17 51°13.984 2°52.857 16.8978 3.835462 30.958824 -0.74754
2005-04-22 07:38:21 51°13.976 2°52.834 16.8707 3.835462 30.958824 -0.74754
2005-04-22 07:38:27 51°13.965 2°52.799 16.8885 3.835356 30.958479 -0.781249
2005-04-22 07:38:32 51°13.955 2°52.77 16.794 3.835462 30.960027 -0.781249
2005-04-22 07:38:37 51°13.946 2°52.741 16.905 3.835251 30.958134 -0.781249
2005-04-22 07:38:41 51°13.939 2°52.718 16.7475 3.835251 30.958134 -0.781249
2005-04-22 07:38:47 51°13.927 2°52.679 16.9123 3.835251 30.958735 -0.781249
2005-04-22 07:38:51 51°13.92 2°52.656 16.809 3.835251 30.958735 -0.781249
2005-04-22 07:38:57 51°13.909 2°52.624 16.8792 3.835146 30.95839 -0.781249
2005-04-22 07:39:01 51°13.902 2°52.601 16.7575 3.83504 30.957443 -0.781249
2005-04-22 07:39:07 51°13.89 2°52.563 16.8834 3.834935 30.957098 -0.74754
2005-04-22 07:39:12 51°13.882 2°52.536 16.8427 3.835146 30.95839 -0.781249
2005-04-22 07:39:17 51°13.873 2°52.507 16.8779 3.834935 30.957098 -0.781249
2005-04-22 07:39:22 51°13.863 2°52.478 16.8242 3.834935 30.957098 -0.781249
2005-04-22 07:39:27 51°13.854 2°52.449 16.8962 3.834935 30.957098 -0.74754
2005-04-22 07:39:32 51°13.845 2°52.42 16.8399 3.83504 30.958045 -0.781249
2005-04-22 07:39:37 51°13.835 2°52.391 16.7977 3.834935 30.958302 -0.781249
2005-04-22 07:39:42 51°13.825 2°52.359 16.8705 3.834829 30.956753 -0.781249
2005-04-22 07:39:47 51°13.816 2°52.33 16.8311 3.834724 30.95701 -0.781249
2005-04-22 07:39:51 51°13.809 2°52.306 16.8513 3.834724 30.95701 -0.781249
2005-04-22 07:39:57 51°13.799 2°52.274 16.8241 3.834935 30.958302 -0.781249
2005-04-22 07:40:01 51°13.792 2°52.251 16.8542 3.834724 30.95701 -0.781249
2005-04-22 07:40:07 51°13.781 2°52.216 16.8167 3.834829 30.958558 -0.781249
2005-04-22 07:40:12 51°13.77 2°52.183 16.8881 3.834619 30.956063 -0.781249
2005-04-22 07:40:17 51°13.762 2°52.157 16.8571 3.834619 30.956665 -0.781249
2005-04-22 07:40:21 51°13.755 2°52.134 16.8847 3.834619 30.956665 -0.781249
2005-04-22 07:40:27 51°13.743 2°52.096 16.8456 3.834619 30.956665 -0.781249
2005-04-22 07:40:32 51°13.735 2°52.07 16.8313 3.834513 30.95632 -0.781249
2005-04-22 07:40:37 51°13.725 2°52.041 16.8493 3.834619 30.957868 -0.781249
2005-04-22 07:40:42 51°13.717 2°52.014 16.7678 3.834619 30.957868 -0.781249
2005-04-22 07:40:47 51°13.706 2°51.984 16.7822 3.834619 30.957868 -0.781249
2005-04-22 07:40:52 51°13.695 2°51.952 16.7525 3.834408 30.957178 -0.781249
2005-04-22 07:40:57 51°13.687 2°51.926 16.8714 3.834619 30.95847 -0.74754
2005-04-22 07:41:02 51°13.677 2°51.897 16.7928 3.834408 30.956576 -0.781249
2005-04-22 07:41:07 51°13.667 2°51.868 16.8742 3.834408 30.95778 -0.814958
2005-04-22 07:41:11 51°13.66 2°51.845 16.7238 3.834513 30.958125 -0.781249
2005-04-22 07:41:18 51°13.647 2°51.807 16.8443 3.834408 30.95778 -0.781249
2005-04-22 07:41:21 51°13.64 2°51.788 16.8474 3.834408 30.95778 -0.781249
2005-04-22 07:41:27 51°13.628 2°51.75 16.7749 3.834408 30.95778 -0.781249
2005-04-22 07:41:31 51°13.62 2°51.728 16.8662 3.834408 30.958381 -0.781249
2005-04-22 07:41:37 51°13.609 2°51.696 16.8067 3.834303 30.956833 -0.781249
2005-04-22 07:41:42 51°13.599 2°51.664 16.8578 3.834303 30.957435 -0.781249
2005-04-22 07:41:47 51°13.588 2°51.636 16.8686 3.834303 30.958036 -0.781249
2005-04-22 07:41:52 51°13.579 2°51.611 16.81 3.834303 30.958036 -0.781249
2005-04-22 07:41:57 51°13.569 2°51.582 16.8447 3.834092 30.956744 -0.781249
2005-04-22 07:42:02 51°13.559 2°51.557 16.8037 3.834197 30.957089 -0.781249
2005-04-22 07:42:07 51°13.546 2°51.524 16.8473 3.833986 30.956399 -0.781249
2005-04-22 07:42:11 51°13.538 2°51.502 16.7354 3.834092 30.957346 -0.781249
2005-04-22 07:42:17 51°13.526 2°51.47 16.8497 3.834092 30.957346 -0.74754
2005-04-22 07:42:22 51°13.516 2°51.445 16.7556 3.834092 30.957346 -0.74754
2005-04-22 07:42:27 51°13.505 2°51.415 16.8429 3.833986 30.957001 -0.781249
2005-04-22 07:42:32 51°13.493 2°51.384 16.8122 3.834092 30.957346 -0.814958
2005-04-22 07:42:37 51°13.484 2°51.359 16.8106 3.833881 30.956054 -0.781249
2005-04-22 07:42:42 51°13.472 2°51.329 16.7343 3.833986 30.957603 -0.781249
2005-04-22 07:42:47 51°13.463 2°51.303 16.8174 3.833986 30.957603 -0.781249
2005-04-22 07:42:52 51°13.451 2°51.275 16.7019 3.833881 30.956054 -0.781249
2005-04-22 07:42:57 51°13.441 2°51.247 16.8298 3.83367 30.955965 -0.781249
2005-04-22 07:43:01 51°13.433 2°51.225 16.7808 3.833986 30.958205 -0.781249
2005-04-22 07:43:07 51°13.419 2°51.189 16.8189 3.833776 30.956912 -0.781249
2005-04-22 07:43:11 51°13.41 2°51.167 16.7775 3.833776 30.956912 -0.814958
2005-04-22 07:43:16 51°13.399 2°51.139 16.8393 3.83367 30.956567 -0.781249
2005-04-22 07:43:21 51°13.39 2°51.113 16.7567 3.83367 30.956567 -0.781249
2005-04-22 07:43:27 51°13.375 2°51.078 16.8274 3.83367 30.956567 -0.781249
2005-04-22 07:43:31 51°13.367 2°51.055 16.7616 3.83367 30.956567 -0.781249
2005-04-22 07:43:38 51°13.353 2°51.022 16.7922 3.833565 30.956222 -0.781249
2005-04-22 07:43:42 51°13.345 2°51 16.7875 3.83367 30.957169 -0.781249
2005-04-22 07:43:47 51°13.333 2°50.97 16.7782 3.833459 30.955275 -0.781249
2005-04-22 07:43:52 51°13.321 2°50.94 16.8637 3.833459 30.955275 -0.781249
2005-04-22 07:43:57 51°13.312 2°50.915 16.766 3.83367 30.957169 -0.781249
2005-04-22 07:44:02 51°13.301 2°50.887 16.8201 3.833459 30.956479 -0.814958
2005-04-22 07:44:07 51°13.289 2°50.857 16.8173 3.833459 30.955877 -0.781249
2005-04-22 07:44:11 51°13.281 2°50.835 16.7147 3.833459 30.957081 -0.781249
2005-04-22 07:44:18 51°13.268 2°50.801 16.8316 3.833459 30.956479 -0.781249
2005-04-22 07:44:22 51°13.258 2°50.777 16.7786 3.833459 30.956479 -0.781249
2005-04-22 07:44:27 51°13.247 2°50.746 16.7343 3.833459 30.957683 -0.74754
2005-04-22 07:44:31 51°13.238 2°50.724 16.8181 3.833459 30.957683 -0.814958
2005-04-22 07:44:37 51°13.227 2°50.694 16.8173 3.833249 30.955788 -0.814958
2005-04-22 07:44:42 51°13.214 2°50.663 16.7543 3.833249 30.955788 -0.781249
2005-04-22 07:44:47 51°13.203 2°50.636 16.8101 3.833249 30.95639 -0.781249
2005-04-22 07:44:51 51°13.195 2°50.614 16.8127 3.833249 30.95639 -0.781249
2005-04-22 07:44:57 51°13.183 2°50.584 16.7769 3.833249 30.95639 -0.781249
2005-04-22 07:45:02 51°13.17 2°50.553 16.81 3.833249 30.956992 -0.781249
2005-04-22 07:45:07 51°13.161 2°50.528 16.767 3.833143 30.955443 -0.781249
2005-04-22 07:45:11 51°13.151 2°50.504 16.7912 3.833143 30.956045 -0.781249
2005-04-22 07:45:17 51°13.138 2°50.473 16.8105 3.833143 30.956045 -0.781249
2005-04-22 07:45:21 51°13.129 2°50.451 16.787 3.833143 30.956045 -0.781249
2005-04-22 07:45:27 51°13.116 2°50.418 16.8116 3.833038 30.956302 -0.781249
2005-04-22 07:45:31 51°13.106 2°50.394 16.8383 3.833143 30.957249 -0.781249
2005-04-22 07:45:37 51°13.093 2°50.364 16.7712 3.833038 30.9557 -0.781249
2005-04-22 07:45:42 51°13.083 2°50.338 16.8267 3.832933 30.955355 -0.814958
2005-04-22 07:45:47 51°13.071 2°50.308 16.7277 3.832933 30.955957 -0.781249
2005-04-22 07:45:51 51°13.062 2°50.286 16.8322 3.832933 30.955957 -0.781249
2005-04-22 07:45:57 51°13.049 2°50.253 16.7709 3.832933 30.955957 -0.781249
2005-04-22 07:46:02 51°13.038 2°50.225 16.8105 3.832933 30.957161 -0.781249
2005-04-22 07:46:07 51°13.027 2°50.198 16.7633 3.832933 30.956559 -0.74754
2005-04-22 07:46:12 51°13.015 2°50.17 16.8162 3.832722 30.955868 -0.781249
2005-04-22 07:46:17 51°13.004 2°50.143 16.7989 3.832933 30.957763 -0.781249
2005-04-22 07:46:22 51°12.993 2°50.115 16.7832 3.832933 30.957763 -0.781249
2005-04-22 07:46:27 51°12.981 2°50.085 16.8111 3.832722 30.955266 -0.781249
2005-04-22 07:46:31 51°12.972 2°50.063 16.7121 3.832722 30.955868 -0.781249
2005-04-22 07:46:36 51°12.96 2°50.035 16.7921 3.832616 30.955523 -0.814958
2005-04-22 07:46:41 51°12.951 2°50.01 16.7519 3.832722 30.955868 -0.781249
2005-04-22 07:46:47 51°12.936 2°49.974 16.7808 3.832616 30.956727 -0.814958
2005-04-22 07:46:51 51°12.928 2°49.952 16.7468 3.832616 30.956727 -0.814958
2005-04-22 07:46:56 51°12.916 2°49.924 16.8101 3.832722 30.956471 -0.781249
2005-04-22 07:47:02 51°12.904 2°49.893 16.7391 3.832511 30.955178 -0.781249
2005-04-22 07:47:07 51°12.893 2°49.866 16.7748 3.832511 30.95578 -0.74754
2005-04-22 07:47:11 51°12.884 2°49.84 16.7269 3.832616 30.956727 -0.781249
2005-04-22 07:47:17 51°12.871 2°49.81 16.8128 3.832406 30.955435 -0.781249
2005-04-22 07:47:21 51°12.862 2°49.787 16.8061 3.832406 30.955435 -0.781249
2005-04-22 07:47:27 51°12.848 2°49.751 16.7725 3.832406 30.956037 -0.781249
2005-04-22 07:47:31 51°12.839 2°49.729 16.8094 3.8323 30.954487 -0.781249
2005-04-22 07:47:37 51°12.828 2°49.698 16.6703 3.832511 30.956382 -0.814958
2005-04-22 07:47:42 51°12.817 2°49.673 16.7953 3.8323 30.956294 -0.814958
2005-04-22 07:47:47 51°12.806 2°49.643 16.7376 3.832511 30.956984 -0.781249
2005-04-22 07:47:52 51°12.794 2°49.615 16.8074 3.832511 30.956984 -0.781249
2005-04-22 07:47:56 51°12.784 2°49.591 16.6778 3.832195 30.954744 -0.781249
2005-04-22 07:48:01 51°12.774 2°49.566 16.7686 3.832195 30.955949 -0.74754
2005-04-22 07:48:07 51°12.76 2°49.533 16.7492 3.8323 30.956294 -0.74754
2005-04-22 07:48:11 51°12.751 2°49.508 16.7857 3.832089 30.954399 -0.814958
2005-04-22 07:48:17 51°12.738 2°49.478 16.7592 3.83209 30.955603 -0.781249
2005-04-22 07:48:21 51°12.73 2°49.455 16.7723 3.83209 30.955603 -0.781249
2005-04-22 07:48:27 51°12.715 2°49.42 16.7958 3.832195 30.955949 -0.781249
2005-04-22 07:48:31 51°12.707 2°49.398 16.7578 3.831984 30.954656 -0.781249
2005-04-22 07:48:37 51°12.694 2°49.367 16.802 3.83209 30.955603 -0.781249
2005-04-22 07:48:40 51°12.687 2°49.347 16.7363 3.83209 30.955603 -0.781249
2005-04-22 07:48:47 51°12.672 2°49.309 16.7674 3.831984 30.955258 -0.781249
2005-04-22 07:48:51 51°12.662 2°49.286 16.7545 3.831984 30.955258 -0.781249
2005-04-22 07:48:57 51°12.651 2°49.256 16.7513 3.831984 30.95586 -0.781249
2005-04-22 07:49:02 51°12.64 2°49.231 16.7549 3.831984 30.95586 -0.74754
2005-04-22 07:49:07 51°12.628 2°49.197 16.7193 3.831773 30.953965 -0.814958
2005-04-22 07:49:12 51°12.616 2°49.17 16.7192 3.831668 30.954825 -0.74754
2005-04-22 07:49:17 51°12.607 2°49.145 16.7593 3.831984 30.956463 -0.781249
2005-04-22 07:49:22 51°12.595 2°49.118 16.7062 3.831984 30.956463 -0.781249
2005-04-22 07:49:27 51°12.585 2°49.09 16.7751 3.831773 30.955772 -0.781249
2005-04-22 07:49:31 51°12.575 2°49.065 16.7375 3.831879 30.956117 -0.781249
2005-04-22 07:49:37 51°12.563 2°49.035 16.6952 3.831668 30.954222 -0.781249
2005-04-22 07:49:41 51°12.554 2°49.013 16.7721 3.831668 30.954825 -0.814958
2005-04-22 07:49:47 51°12.541 2°48.98 16.755 3.831668 30.954222 -0.781249
2005-04-22 07:49:51 51°12.531 2°48.955 16.7723 3.831668 30.954222 -0.781249
2005-04-22 07:49:57 51°12.519 2°48.924 16.7297 3.831457 30.953532 -0.781249
2005-04-22 07:50:01 51°12.51 2°48.903 16.7635 3.831563 30.955082 -0.781249
2005-04-22 07:50:06 51°12.498 2°48.872 16.7357 3.831668 30.954825 -0.781249
2005-04-22 07:50:12 51°12.486 2°48.841 16.7625 3.831457 30.954736 -0.781249
2005-04-22 07:50:17 51°12.475 2°48.814 16.7306 3.831668 30.956029 -0.781249
2005-04-22 07:50:22 51°12.463 2°48.784 16.7679 3.831668 30.956029 -0.781249
2005-04-22 07:50:27 51°12.453 2°48.759 16.744 3.831457 30.954736 -0.814958
2005-04-22 07:50:31 51°12.445 2°48.737 16.7449 3.831563 30.956286 -0.814958
2005-04-22 07:50:37 51°12.431 2°48.704 16.7802 3.831352 30.954391 -0.781249
2005-04-22 07:50:41 51°12.423 2°48.681 16.7271 3.831457 30.955339 -0.781249
2005-04-22 07:50:47 51°12.408 2°48.646 16.7375 3.831457 30.955339 -0.814958
2005-04-22 07:50:51 51°12.4 2°48.623 16.7665 3.831457 30.955339 -0.814958
2005-04-22 07:50:56 51°12.389 2°48.596 16.773 3.831352 30.954993 -0.781249
2005-04-22 07:51:02 51°12.377 2°48.565 16.7784 3.831141 30.9537 -0.74754
2005-04-22 07:51:07 51°12.365 2°48.536 16.766 3.831246 30.954648 -0.781249
2005-04-22 07:51:12 51°12.354 2°48.508 16.7479 3.831352 30.955596 -0.781249
2005-04-22 07:51:16 51°12.345 2°48.486 16.7512 3.831036 30.953355 -0.814958
2005-04-22 07:51:21 51°12.335 2°48.461 16.7948 3.831036 30.953355 -0.814958
2005-04-22 07:51:27 51°12.322 2°48.429 16.7155 3.831141 30.954303 -0.781249
2005-04-22 07:51:31 51°12.312 2°48.404 16.7786 3.831141 30.954905 -0.781249
2005-04-22 07:51:36 51°12.301 2°48.376 16.7498 3.831141 30.954905 -0.781249
2005-04-22 07:51:42 51°12.29 2°48.348 16.7888 3.831036 30.95456 -0.781249
2005-04-22 07:51:47 51°12.279 2°48.319 16.6476 3.831036 30.95456 -0.781249
2005-04-22 07:51:52 51°12.267 2°48.288 16.8038 3.831036 30.955162 -0.814958
2005-04-22 07:51:56 51°12.258 2°48.266 16.6818 3.831036 30.95456 -0.74754
2005-04-22 07:52:02 51°12.247 2°48.239 16.7795 3.83093 30.955419 -0.781249
2005-04-22 07:52:07 51°12.235 2°48.209 16.7377 3.831036 30.955764 -0.814958
2005-04-22 07:52:12 51°12.224 2°48.179 16.7819 3.830825 30.953869 -0.814958
2005-04-22 07:52:16 51°12.215 2°48.157 16.7 3.830825 30.954472 -0.74754
2005-04-22 07:52:21 51°12.205 2°48.132 16.7864 3.830825 30.954472 -0.74754
2005-04-22 07:52:27 51°12.191 2°48.096 16.7285 3.830825 30.953869 -0.781249
2005-04-22 07:52:31 51°12.183 2°48.074 16.7584 3.830614 30.953179 -0.781249
2005-04-22 07:52:37 51°12.171 2°48.044 16.7376 3.830825 30.955074 -0.781249
2005-04-22 07:52:42 51°12.161 2°48.019 16.753 3.83072 30.954126 -0.781249
2005-04-22 07:52:47 51°12.149 2°47.989 16.7533 3.83072 30.954729 -0.781249
2005-04-22 07:52:51 51°12.139 2°47.965 16.731 3.83072 30.954729 -0.781249
2005-04-22 07:52:57 51°12.127 2°47.935 16.775 3.830614 30.954383 -0.781249
2005-04-22 07:53:02 51°12.117 2°47.909 16.7 3.83072 30.955331 -0.781249
2005-04-22 07:53:07 51°12.106 2°47.88 16.789 3.830509 30.954038 -0.781249
2005-04-22 07:53:12 51°12.095 2°47.852 16.76 3.830614 30.954383 -0.814958
2005-04-22 07:53:17 51°12.084 2°47.825 16.7682 3.830403 30.953693 -0.781249
2005-04-22 07:53:22 51°12.072 2°47.794 16.7666 3.830403 30.953693 -0.781249
2005-04-22 07:53:27 51°12.063 2°47.77 16.7534 3.830509 30.95464 -0.781249
2005-04-22 07:53:32 51°12.052 2°47.742 16.736 3.830403 30.953693 -0.781249
2005-04-22 07:53:37 51°12.041 2°47.715 16.7806 3.830403 30.954295 -0.781249
2005-04-22 07:53:41 51°12.033 2°47.693 16.7347 3.830403 30.954295 -0.781249
2005-04-22 07:53:47 51°12.018 2°47.657 16.7704 3.830298 30.95395 -0.814958
2005-04-22 07:53:52 51°12.008 2°47.629 16.7698 3.830298 30.95395 -0.814958
2005-04-22 07:53:57 51°11.998 2°47.605 16.7702 3.830509 30.955243 -0.814958
2005-04-22 07:54:01 51°11.99 2°47.582 16.775 3.830087 30.952657 -0.814958
2005-04-22 07:54:07 51°11.977 2°47.55 16.7678 3.830403 30.954898 -0.781249
2005-04-22 07:54:12 51°11.965 2°47.52 16.7568 3.830193 30.953604 -0.781249
2005-04-22 07:54:17 51°11.955 2°47.495 16.7628 3.830193 30.954207 -0.781249
2005-04-22 07:54:22 51°11.945 2°47.47 16.7798 3.830193 30.954207 -0.781249
2005-04-22 07:54:27 51°11.933 2°47.441 16.7776 3.830193 30.954207 -0.74754
2005-04-22 07:54:31 51°11.923 2°47.416 16.7805 3.830193 30.954207 -0.781249
2005-04-22 07:54:37 51°11.911 2°47.386 16.729 3.830087 30.953862 -0.781249
2005-04-22 07:54:42 51°11.899 2°47.356 16.7909 3.830087 30.953862 -0.781249
2005-04-22 07:54:47 51°11.889 2°47.332 16.7306 3.830087 30.953862 -0.781249
2005-04-22 07:54:51 51°11.879 2°47.308 16.7809 3.830087 30.953862 -0.781249
2005-04-22 07:54:57 51°11.867 2°47.278 16.7529 3.830087 30.955067 -0.781249
2005-04-22 07:55:02 51°11.857 2°47.25 16.7953 3.829982 30.954119 -0.814958
2005-04-22 07:55:07 51°11.845 2°47.221 16.7661 3.830087 30.955067 -0.781249
2005-04-22 07:55:11 51°11.836 2°47.199 16.7819 3.829876 30.953773 -0.781249
2005-04-22 07:55:17 51°11.825 2°47.168 16.7568 3.829876 30.953773 -0.781249
2005-04-22 07:55:22 51°11.814 2°47.14 16.7845 3.829876 30.953773 -0.814958
2005-04-22 07:55:27 51°11.804 2°47.109 16.7847 3.829771 30.954031 -0.781249
2005-04-22 07:55:31 51°11.796 2°47.087 16.7683 3.829876 30.954376 -0.814958
2005-04-22 07:55:37 51°11.786 2°47.055 16.7701 3.829771 30.953428 -0.781249
2005-04-22 07:55:41 51°11.778 2°47.033 16.7664 3.829771 30.954633 -0.781249
2005-04-22 07:55:47 51°11.766 2°46.996 16.7653 3.829771 30.954031 -0.814958
2005-04-22 07:55:52 51°11.757 2°46.97 16.7752 3.829771 30.954031 -0.814958
2005-04-22 07:55:57 51°11.747 2°46.942 16.7691 3.829666 30.954288 -0.74754
2005-04-22 07:56:02 51°11.738 2°46.916 16.7801 3.829666 30.954288 -0.781249
2005-04-22 07:56:07 51°11.728 2°46.885 16.8015 3.829771 30.955236 -0.781249
2005-04-22 07:56:12 51°11.718 2°46.856 16.7325 3.829771 30.955236 -0.781249
2005-04-22 07:56:17 51°11.709 2°46.828 16.7762 3.82956 30.95334 -0.814958
2005-04-22 07:56:22 51°11.699 2°46.799 16.7797 3.82956 30.95334 -0.814958
2005-04-22 07:56:27 51°11.689 2°46.768 16.7854 3.829666 30.954891 -0.781249
2005-04-22 07:56:31 51°11.681 2°46.745 16.8017 3.829455 30.9542 -0.814958
2005-04-22 07:56:37 51°11.67 2°46.714 16.8032 3.829455 30.953597 -0.781249
2005-04-22 07:56:41 51°11.663 2°46.691 16.8036 3.82956 30.955148 -0.814958
2005-04-22 07:56:47 51°11.651 2°46.656 16.7936 3.829455 30.9542 -0.781249
2005-04-22 07:56:52 51°11.642 2°46.628 16.7372 3.829455 30.9542 -0.781249
2005-04-22 07:56:57 51°11.632 2°46.599 16.7759 3.82935 30.953855 -0.781249
2005-04-22 07:57:02 51°11.622 2°46.568 16.7825 3.82935 30.953855 -0.781249
2005-04-22 07:57:07 51°11.614 2°46.542 16.752 3.829244 30.952906 -0.781249
2005-04-22 07:57:11 51°11.606 2°46.515 16.801 3.829244 30.953509 -0.781249
2005-04-22 07:57:17 51°11.597 2°46.483 16.7951 3.82935 30.954457 -0.781249
2005-04-22 07:57:22 51°11.588 2°46.45 16.8074 3.82935 30.954457 -0.781249
2005-04-22 07:57:27 51°11.581 2°46.423 16.8127 3.829244 30.954112 -0.74754
2005-04-22 07:57:31 51°11.575 2°46.399 16.7883 3.829139 30.953164 -0.781249
2005-04-22 07:57:37 51°11.565 2°46.364 16.7934 3.829244 30.954112 -0.781249
2005-04-22 07:57:41 51°11.559 2°46.34 16.7866 3.829139 30.954369 -0.781249
2005-04-22 07:57:47 51°11.549 2°46.304 16.7851 3.829139 30.954369 -0.814958
2005-04-22 07:57:52 51°11.541 2°46.274 16.8073 3.829139 30.954369 -0.814958
2005-04-22 07:57:57 51°11.533 2°46.245 16.7708 3.829033 30.953421 -0.814958
2005-04-22 07:58:01 51°11.526 2°46.221 16.7667 3.829139 30.954369 -0.781249
2005-04-22 07:58:07 51°11.516 2°46.182 16.8187 3.828928 30.953076 -0.781249
2005-04-22 07:58:11 51°11.509 2°46.159 16.757 3.829033 30.954024 -0.781249
2005-04-22 07:58:16 51°11.501 2°46.13 16.798 3.829033 30.954627 -0.781249
2005-04-22 07:58:21 51°11.493 2°46.103 16.8051 3.829033 30.954627 -0.781249
2005-04-22 07:58:26 51°11.484 2°46.07 16.8099 3.828928 30.953678 -0.814958
2005-04-22 07:58:31 51°11.476 2°46.04 16.7678 3.828928 30.954281 -0.814958
2005-04-22 07:58:37 51°11.467 2°46.008 16.8089 3.828823 30.953936 -0.781249
2005-04-22 07:58:41 51°11.461 2°45.984 16.7899 3.828823 30.953333 -0.814958
2005-04-22 07:58:47 51°11.451 2°45.949 16.7897 3.828823 30.953333 -0.814958
2005-04-22 07:58:51 51°11.443 2°45.922 16.8229 3.828717 30.95359 -0.814958
2005-04-22 07:58:57 51°11.434 2°45.889 16.7917 3.828823 30.954539 -0.814958
2005-04-22 07:59:01 51°11.428 2°45.865 16.8042 3.828612 30.952642 -0.781249
2005-04-22 07:59:07 51°11.418 2°45.83 16.8134 3.828717 30.954193 -0.781249
2005-04-22 07:59:12 51°11.409 2°45.797 16.8223 3.828823 30.955141 -0.781249
2005-04-22 07:59:16 51°11.402 2°45.774 16.8116 3.828717 30.954796 -0.781249
2005-04-22 07:59:22 51°11.393 2°45.741 16.8007 3.828717 30.954796 -0.781249
2005-04-22 07:59:27 51°11.385 2°45.712 16.8308 3.828612 30.954451 -0.781249
2005-04-22 07:59:32 51°11.376 2°45.679 16.761 3.828612 30.953848 -0.781249
2005-04-22 07:59:37 51°11.369 2°45.652 16.8285 3.828507 30.953502 -0.74754
2005-04-22 07:59:41 51°11.363 2°45.628 16.7538 3.828507 30.953502 -0.781249
2005-04-22 07:59:47 51°11.353 2°45.593 16.8018 3.828401 30.95376 -0.781249
2005-04-22 07:59:51 51°11.346 2°45.566 16.8071 3.828401 30.95376 -0.781249
2005-04-22 07:59:57 51°11.337 2°45.534 16.7516 3.828612 30.954451 -0.781249
2005-04-22 08:00:02 51°11.329 2°45.504 16.8115 3.828401 30.95376 -0.781249
2005-04-22 08:00:07 51°11.321 2°45.475 16.7943 3.828401 30.95376 -0.814958
2005-04-22 08:00:12 51°11.312 2°45.443 16.8266 3.828296 30.953414 -0.781249
2005-04-22 08:00:16 51°11.306 2°45.419 16.8131 3.828296 30.954017 -0.781249
2005-04-22 08:00:22 51°11.297 2°45.389 16.8154 3.828296 30.954017 -0.781249
2005-04-22 08:00:27 51°11.289 2°45.358 16.8145 3.82819 30.952466 -0.781249
2005-04-22 08:00:31 51°11.281 2°45.331 16.8106 3.82819 30.953069 -0.781249
2005-04-22 08:00:37 51°11.272 2°45.299 16.7717 3.82819 30.953069 -0.74754
2005-04-22 08:00:42 51°11.264 2°45.266 16.8222 3.82819 30.952466 -0.781249
2005-04-22 08:00:47 51°11.256 2°45.24 16.8047 3.828085 30.953326 -0.781249
2005-04-22 08:00:51 51°11.249 2°45.214 16.8094 3.828085 30.953326 -0.781249
2005-04-22 08:00:57 51°11.24 2°45.182 16.8108 3.82819 30.954275 -0.781249
2005-04-22 08:01:01 51°11.233 2°45.158 16.8249 3.828085 30.953326 -0.814958
2005-04-22 08:01:07 51°11.223 2°45.119 16.7854 3.82819 30.953672 -0.781249
2005-04-22 08:01:12 51°11.215 2°45.093 16.819 3.827874 30.952033 -0.781249
2005-04-22 08:01:17 51°11.207 2°45.063 16.8218 3.828085 30.953326 -0.781249
2005-04-22 08:01:21 51°11.201 2°45.04 16.7984 3.828085 30.953326 -0.781249
2005-04-22 08:01:27 51°11.19 2°45.002 16.8199 3.82798 30.953584 -0.781249
2005-04-22 08:01:31 51°11.184 2°44.978 16.8069 3.82798 30.953584 -0.781249
2005-04-22 08:01:37 51°11.175 2°44.946 16.8348 3.82798 30.954187 -0.781249
2005-04-22 08:01:42 51°11.166 2°44.916 16.8249 3.827874 30.953239 -0.781249
2005-04-22 08:01:47 51°11.157 2°44.884 16.8323 3.827874 30.953239 -0.781249
2005-04-22 08:01:52 51°11.15 2°44.857 16.8042 3.827874 30.953239 -0.781249
2005-04-22 08:01:57 51°11.143 2°44.828 16.8299 3.827769 30.951687 -0.781249
2005-04-22 08:02:02 51°11.135 2°44.801 16.8216 3.827874 30.953841 -0.814958
2005-04-22 08:02:07 51°11.126 2°44.766 16.8148 3.827874 30.953841 -0.781249
2005-04-22 08:02:11 51°11.119 2°44.742 16.8277 3.827874 30.954444 -0.781249
2005-04-22 08:02:17 51°11.111 2°44.709 16.8358 3.827663 30.952548 -0.74754
2005-04-22 08:02:21 51°11.104 2°44.686 16.8299 3.827663 30.952548 -0.74754
2005-04-22 08:02:27 51°11.094 2°44.647 16.7697 3.827769 30.954099 -0.814958
2005-04-22 08:02:32 51°11.087 2°44.62 16.8272 3.827663 30.953754 -0.74754
2005-04-22 08:02:37 51°11.078 2°44.592 16.7935 3.827769 30.954099 -0.781249
2005-04-22 08:02:41 51°11.072 2°44.568 16.8353 3.827558 30.952805 -0.781249
2005-04-22 08:02:47 51°11.061 2°44.53 16.8342 3.827663 30.953754 -0.814958
2005-04-22 08:02:51 51°11.055 2°44.506 16.838 3.827663 30.953754 -0.814958
2005-04-22 08:02:57 51°11.046 2°44.473 16.8308 3.827453 30.95246 -0.74754
2005-04-22 08:03:02 51°11.038 2°44.444 16.821 3.827453 30.95246 -0.814958
2005-04-22 08:03:07 51°11.03 2°44.415 16.8124 3.827453 30.953063 -0.814958
2005-04-22 08:03:12 51°11.021 2°44.382 16.8615 3.827453 30.953063 -0.781249
2005-04-22 08:03:17 51°11.014 2°44.356 16.8254 3.827453 30.953063 -0.814958
2005-04-22 08:03:22 51°11.006 2°44.329 16.8353 3.827453 30.953063 -0.814958
2005-04-22 08:03:27 51°10.996 2°44.295 16.8018 3.827453 30.953063 -0.814958
2005-04-22 08:03:32 51°10.989 2°44.269 16.8294 3.827347 30.95332 -0.781249
2005-04-22 08:03:37 51°10.981 2°44.24 16.8401 3.827242 30.951769 -0.781249
2005-04-22 08:03:41 51°10.974 2°44.217 16.8254 3.827347 30.95332 -0.814958
2005-04-22 08:03:47 51°10.963 2°44.18 16.8251 3.827347 30.95332 -0.781249
2005-04-22 08:03:52 51°10.956 2°44.153 16.8263 3.827347 30.95332 -0.781249
2005-04-22 08:03:57 51°10.948 2°44.124 16.8481 3.827242 30.952372 -0.814958
2005-04-22 08:04:02 51°10.939 2°44.093 16.8412 3.827242 30.952975 -0.814958
2005-04-22 08:04:07 51°10.931 2°44.064 16.815 3.827137 30.952629 -0.814958
2005-04-22 08:04:11 51°10.925 2°44.041 16.8441 3.827137 30.952629 -0.781249
2005-04-22 08:04:17 51°10.916 2°44.009 16.842 3.827242 30.953578 -0.781249
2005-04-22 08:04:22 51°10.908 2°43.982 16.8481 3.827242 30.953578 -0.781249
2005-04-22 08:04:27 51°10.899 2°43.948 16.8271 3.827137 30.952629 -0.781249
2005-04-22 08:04:31 51°10.892 2°43.925 16.8531 3.827137 30.953836 -0.814958
2005-04-22 08:04:36 51°10.884 2°43.896 16.8455 3.827137 30.953232 -0.781249
2005-04-22 08:04:42 51°10.876 2°43.867 16.8524 3.827031 30.952284 -0.781249
2005-04-22 08:04:47 51°10.866 2°43.834 16.8199 3.827031 30.95349 -0.781249
2005-04-22 08:04:51 51°10.86 2°43.81 16.8011 3.827031 30.95349 -0.781249
2005-04-22 08:04:57 51°10.851 2°43.779 16.854 3.827137 30.953836 -0.781249
2005-04-22 08:05:02 51°10.844 2°43.749 16.827 3.826926 30.952542 -0.781249
2005-04-22 08:05:07 51°10.834 2°43.719 16.8615 3.826926 30.953145 -0.781249
2005-04-22 08:05:12 51°10.827 2°43.692 16.8309 3.826926 30.952542 -0.814958
2005-04-22 08:05:17 51°10.819 2°43.663 16.8564 3.82682 30.952196 -0.781249
2005-04-22 08:05:20 51°10.814 2°43.643 16.8275 3.82682 30.952196 -0.781249
2005-04-22 08:05:26 51°10.805 2°43.611 16.8379 3.826926 30.954351 -0.781249
2005-04-22 08:05:32 51°10.794 2°43.574 16.8343 3.82682 30.952799 -0.74754
2005-04-22 08:05:37 51°10.787 2°43.548 16.8483 3.826715 30.952454 -0.74754
2005-04-22 08:05:40 51°10.781 2°43.528 16.8535 3.82661 30.951505 -0.781249
2005-04-22 08:05:47 51°10.771 2°43.49 16.8285 3.826715 30.952454 -0.781249
2005-04-22 08:05:51 51°10.763 2°43.464 16.8413 3.826715 30.952454 -0.781249
2005-04-22 08:05:58 51°10.754 2°43.428 16.836 3.82661 30.952711 -0.781249
2005-04-22 08:06:02 51°10.747 2°43.406 16.8406 3.826715 30.953057 -0.781249
2005-04-22 08:06:07 51°10.739 2°43.374 16.8505 3.826504 30.95116 -0.781249
2005-04-22 08:06:12 51°10.731 2°43.345 16.8406 3.826715 30.95366 -0.814958
2005-04-22 08:06:17 51°10.723 2°43.316 16.8707 3.826504 30.951763 -0.781249
2005-04-22 08:06:20 51°10.717 2°43.296 16.8348 3.826504 30.951763 -0.781249
2005-04-22 08:06:27 51°10.706 2°43.255 16.8706 3.826399 30.95202 -0.781249
2005-04-22 08:06:31 51°10.7 2°43.235 16.8125 3.826715 30.954263 -0.781249
2005-04-22 08:06:37 51°10.69 2°43.2 16.856 3.826293 30.950469 -0.74754
2005-04-22 08:06:42 51°10.682 2°43.172 16.8416 3.826399 30.95202 -0.814958
2005-04-22 08:06:47 51°10.674 2°43.143 16.8536 3.826399 30.95202 -0.74754
2005-04-22 08:06:52 51°10.666 2°43.113 16.867 3.826399 30.95202 -0.74754
2005-04-22 08:06:57 51°10.658 2°43.084 16.8104 3.826293 30.951072 -0.74754
2005-04-22 08:07:02 51°10.649 2°43.053 16.8658 3.826399 30.95202 -0.781249
2005-04-22 08:07:07 51°10.642 2°43.027 16.8139 3.826399 30.95202 -0.781249
2005-04-22 08:07:11 51°10.634 2°43.001 16.8578 3.826188 30.951329 -0.781249
2005-04-22 08:07:17 51°10.625 2°42.97 16.8399 3.826188 30.951329 -0.781249
2005-04-22 08:07:21 51°10.619 2°42.946 16.8697 3.826188 30.951329 -0.781249
2005-04-22 08:07:27 51°10.609 2°42.912 16.8221 3.826293 30.952278 -0.781249
2005-04-22 08:07:32 51°10.6 2°42.88 16.8214 3.826083 30.951587 -0.781249
2005-04-22 08:07:37 51°10.593 2°42.854 16.834 3.826294 30.953485 -0.781249
2005-04-22 08:07:40 51°10.587 2°42.834 16.8567 3.826083 30.950984 -0.781249
2005-04-22 08:07:47 51°10.576 2°42.796 16.8711 3.826188 30.952536 -0.781249
2005-04-22 08:07:51 51°10.569 2°42.77 16.789 3.826188 30.952536 -0.781249
2005-04-22 08:07:57 51°10.56 2°42.739 16.8708 3.826083 30.951587 -0.781249
2005-04-22 08:08:00 51°10.555 2°42.718 16.8466 3.826083 30.95219 -0.781249
2005-04-22 08:08:07 51°10.544 2°42.681 16.8531 3.825872 30.950293 -0.781249
2005-04-22 08:08:11 51°10.537 2°42.658 16.8736 3.825977 30.951242 -0.781249
2005-04-22 08:08:17 51°10.527 2°42.624 16.8482 3.825977 30.951242 -0.74754
2005-04-22 08:08:21 51°10.521 2°42.601 16.809 3.825977 30.951242 -0.74754
2005-04-22 08:08:27 51°10.51 2°42.563 16.8717 3.825872 30.950896 -0.781249
2005-04-22 08:08:31 51°10.503 2°42.54 16.8153 3.825977 30.951845 -0.781249
2005-04-22 08:08:37 51°10.495 2°42.508 16.8756 3.825872 30.951499 -0.781249
2005-04-22 08:08:41 51°10.488 2°42.485 16.8282 3.825977 30.952448 -0.814958
2005-04-22 08:08:47 51°10.478 2°42.447 16.8794 3.825767 30.950551 -0.814958
2005-04-22 08:08:51 51°10.472 2°42.424 16.8554 3.825767 30.950551 -0.814958
2005-04-22 08:08:57 51°10.463 2°42.392 16.8468 3.825872 30.952706 -0.781249
2005-04-22 08:09:02 51°10.454 2°42.361 16.8648 3.825872 30.952706 -0.781249
2005-04-22 08:09:07 51°10.446 2°42.331 16.8828 3.825872 30.952706 -0.781249
2005-04-22 08:09:11 51°10.44 2°42.312 16.8803 3.825767 30.951757 -0.781249
2005-04-22 08:09:17 51°10.43 2°42.277 16.8447 3.825767 30.95236 -0.781249
2005-04-22 08:09:22 51°10.422 2°42.247 16.8788 3.825767 30.95236 -0.781249
2005-04-22 08:09:27 51°10.414 2°42.215 16.8302 3.825767 30.95236 -0.781249
2005-04-22 08:09:31 51°10.408 2°42.192 16.8559 3.825661 30.952015 -0.781249
2005-04-22 08:09:37 51°10.401 2°42.159 16.8559 3.825661 30.951412 -0.781249
2005-04-22 08:09:42 51°10.395 2°42.131 16.858 3.825556 30.951066 -0.781249
2005-04-22 08:09:47 51°10.388 2°42.099 16.8655 3.825556 30.951066 -0.781249
2005-04-22 08:09:51 51°10.383 2°42.071 16.8508 3.825556 30.951066 -0.781249
2005-04-22 08:09:57 51°10.376 2°42.039 16.8831 3.825661 30.952618 -0.814958
2005-04-22 08:10:02 51°10.37 2°42.008 16.8617 3.82545 30.951324 -0.814958
2005-04-22 08:10:07 51°10.363 2°41.978 16.8813 3.825556 30.952876 -0.781249
2005-04-22 08:10:12 51°10.357 2°41.948 16.8155 3.82545 30.951927 -0.781249
2005-04-22 08:10:17 51°10.35 2°41.917 16.8935 3.82545 30.951927 -0.781249
2005-04-22 08:10:21 51°10.345 2°41.894 16.8867 3.82545 30.951927 -0.781249
2005-04-22 08:10:27 51°10.338 2°41.858 16.8616 3.82545 30.952531 -0.781249
2005-04-22 08:10:31 51°10.332 2°41.833 16.883 3.825345 30.952185 -0.781249
2005-04-22 08:10:38 51°10.324 2°41.793 16.8785 3.82524 30.950633 -0.781249
2005-04-22 08:10:41 51°10.319 2°41.773 16.8891 3.82524 30.951236 -0.781249
2005-04-22 08:10:47 51°10.31 2°41.733 16.8869 3.825345 30.952788 -0.781249
2005-04-22 08:10:51 51°10.306 2°41.712 16.872 3.825345 30.952788 -0.781249
2005-04-22 08:10:57 51°10.298 2°41.676 16.8894 3.825345 30.952185 -0.781249
2005-04-22 08:11:02 51°10.292 2°41.649 16.9011 3.825134 30.950891 -0.781249
2005-04-22 08:11:07 51°10.283 2°41.614 16.8522 3.82524 30.952443 -0.74754
2005-04-22 08:11:12 51°10.277 2°41.586 16.8737 3.82524 30.952443 -0.781249
2005-04-22 08:11:16 51°10.271 2°41.559 16.8741 3.825134 30.952097 -0.814958
2005-04-22 08:11:22 51°10.264 2°41.526 16.8509 3.825134 30.952097 -0.814958
2005-04-22 08:11:27 51°10.258 2°41.496 16.879 3.825134 30.952097 -0.781249
2005-04-22 08:11:31 51°10.252 2°41.468 16.9061 3.825134 30.952097 -0.814958
2005-04-22 08:11:37 51°10.245 2°41.435 16.8975 3.825029 30.951148 -0.814958
2005-04-22 08:11:42 51°10.238 2°41.405 16.8832 3.825029 30.951752 -0.781249
2005-04-22 08:11:47 51°10.231 2°41.375 16.905 3.825029 30.952959 -0.814958
2005-04-22 08:11:51 51°10.226 2°41.348 16.8402 3.825029 30.952959 -0.814958
2005-04-22 08:11:57 51°10.219 2°41.314 16.8682 3.825029 30.952959 -0.781249
2005-04-22 08:12:01 51°10.213 2°41.29 16.8883 3.825029 30.952355 -0.814958
2005-04-22 08:12:07 51°10.205 2°41.25 16.8922 3.824924 30.95201 -0.781249
2005-04-22 08:12:12 51°10.199 2°41.22 16.8825 3.824818 30.951061 -0.781249
2005-04-22 08:12:17 51°10.193 2°41.193 16.8879 3.824924 30.95201 -0.781249
2005-04-22 08:12:22 51°10.186 2°41.162 16.9062 3.824924 30.95201 -0.781249
2005-04-22 08:12:27 51°10.18 2°41.132 16.8756 3.824924 30.952613 -0.781249
2005-04-22 08:12:32 51°10.173 2°41.101 16.899 3.824713 30.951922 -0.781249
2005-04-22 08:12:38 51°10.165 2°41.068 16.8505 3.824713 30.950715 -0.781249
2005-04-22 08:12:42 51°10.16 2°41.044 16.9065 3.824713 30.951319 -0.781249
2005-04-22 08:12:47 51°10.153 2°41.008 16.8717 3.824818 30.952871 -0.814958
2005-04-22 08:12:51 51°10.148 2°40.984 16.9217 3.824818 30.952871 -0.814958
2005-04-22 08:12:57 51°10.14 2°40.951 16.8804 3.824818 30.952871 -0.781249
2005-04-22 08:13:01 51°10.135 2°40.926 16.9118 3.824502 30.951231 -0.781249
2005-04-22 08:13:07 51°10.126 2°40.887 16.8983 3.824818 30.953475 -0.781249
2005-04-22 08:13:12 51°10.12 2°40.86 16.9011 3.824607 30.951577 -0.781249
2005-04-22 08:13:17 51°10.113 2°40.83 16.9085 3.824607 30.95218 -0.814958
2005-04-22 08:13:22 51°10.107 2°40.802 16.911 3.824607 30.95218 -0.814958
2005-04-22 08:13:27 51°10.099 2°40.767 16.8852 3.824502 30.951231 -0.781249
2005-04-22 08:13:31 51°10.094 2°40.743 16.9145 3.824502 30.951835 -0.781249
2005-04-22 08:13:35 51°10.089 2°40.719 16.896 3.824607 30.952784 -0.781249
2005-04-22 08:13:43 51°10.078 2°40.674 16.9023 3.824502 30.951231 -0.781249
2005-04-22 08:13:47 51°10.073 2°40.647 16.8723 3.824607 30.952784 -0.814958
2005-04-22 08:13:51 51°10.067 2°40.623 16.9081 3.824607 30.952784 -0.814958
2005-04-22 08:13:57 51°10.06 2°40.59 16.8901 3.824397 30.950885 -0.781249
2005-04-22 08:14:00 51°10.056 2°40.569 16.9117 3.824397 30.951489 -0.74754
2005-04-22 08:14:07 51°10.046 2°40.527 16.9158 3.824397 30.951489 -0.781249
2005-04-22 08:14:12 51°10.041 2°40.499 16.8604 3.824291 30.95054 -0.781249
2005-04-22 08:14:16 51°10.035 2°40.473 16.9272 3.824291 30.951747 -0.781249
2005-04-22 08:14:21 51°10.029 2°40.445 16.8801 3.824291 30.951747 -0.781249
2005-04-22 08:14:27 51°10.021 2°40.406 16.923 3.824397 30.952696 -0.781249
2005-04-22 08:14:32 51°10.014 2°40.376 16.9018 3.824291 30.951747 -0.781249
2005-04-22 08:14:37 51°10.008 2°40.349 16.9405 3.824186 30.951401 -0.781249
2005-04-22 08:14:40 51°10.003 2°40.328 16.9167 3.824186 30.951401 -0.781249
2005-04-22 08:14:47 51°9.994 2°40.29 16.9318 3.82408 30.951056 -0.814958
2005-04-22 08:14:52 51°9.986 2°40.26 16.8809 3.82408 30.951056 -0.814958
2005-04-22 08:14:57 51°9.98 2°40.23 16.9225 3.82408 30.952263 -0.781249
2005-04-22 08:15:02 51°9.972 2°40.201 16.9144 3.824186 30.952005 -0.781249
2005-04-22 08:15:07 51°9.965 2°40.171 16.9209 3.824186 30.952005 -0.781249
2005-04-22 08:15:11 51°9.958 2°40.145 16.9219 3.82408 30.952263 -0.781249
2005-04-22 08:15:17 51°9.95 2°40.112 16.922 3.82408 30.951659 -0.781249
2005-04-22 08:15:22 51°9.943 2°40.083 16.8918 3.82408 30.951659 -0.781249
2005-04-22 08:15:27 51°9.936 2°40.05 16.923 3.823975 30.951314 -0.781249
2005-04-22 08:15:31 51°9.929 2°40.026 16.9079 3.82408 30.952263 -0.781249
2005-04-22 08:15:37 51°9.922 2°39.993 16.9257 3.82387 30.950365 -0.781249
2005-04-22 08:15:42 51°9.915 2°39.966 16.9174 3.823764 30.950019 -0.781249
2005-04-22 08:15:47 51°9.908 2°39.933 16.9434 3.823975 30.951314 -0.781249
2005-04-22 08:15:52 51°9.9 2°39.904 16.93 3.823975 30.951314 -0.781249
2005-04-22 08:15:57 51°9.894 2°39.874 16.9249 3.82387 30.950968 -0.74754
2005-04-22 08:16:02 51°9.887 2°39.846 16.9258 3.82387 30.952176 -0.814958
2005-04-22 08:16:07 51°9.878 2°39.811 16.911 3.82387 30.950968 -0.781249
2005-04-22 08:16:11 51°9.872 2°39.788 16.9367 3.823764 30.951226 -0.781249
2005-04-22 08:16:16 51°9.865 2°39.758 16.9144 3.82387 30.952176 -0.781249
2005-04-22 08:16:21 51°9.858 2°39.732 16.9384 3.82387 30.952176 -0.781249
2005-04-22 08:16:27 51°9.849 2°39.696 16.9281 3.823764 30.952434 -0.781249
2005-04-22 08:16:32 51°9.841 2°39.663 16.9143 3.823764 30.95183 -0.781249
2005-04-22 08:16:37 51°9.835 2°39.636 16.9313 3.823764 30.95183 -0.781249
2005-04-22 08:16:40 51°9.83 2°39.616 16.9488 3.823659 30.952088 -0.781249
2005-04-22 08:16:47 51°9.82 2°39.577 16.9435 3.823554 30.950535 -0.814958
2005-04-22 08:16:52 51°9.813 2°39.547 16.9406 3.823554 30.950535 -0.814958
2005-04-22 08:16:57 51°9.806 2°39.518 16.956 3.823659 30.952088 -0.814958
2005-04-22 08:17:01 51°9.8 2°39.494 16.9493 3.823659 30.951484 -0.781249
2005-04-22 08:17:07 51°9.791 2°39.458 16.9541 3.823659 30.952088 -0.781249
2005-04-22 08:17:12 51°9.783 2°39.425 16.9556 3.823659 30.952088 -0.781249
2005-04-22 08:17:17 51°9.777 2°39.399 16.966 3.823554 30.952346 -0.814958
2005-04-22 08:17:22 51°9.769 2°39.366 16.943 3.823554 30.952346 -0.814958
2005-04-22 08:17:27 51°9.761 2°39.337 16.9688 3.823448 30.951397 -0.781249
2005-04-22 08:17:31 51°9.755 2°39.313 16.9232 3.823343 30.949844 -0.781249
2005-04-22 08:17:37 51°9.747 2°39.28 16.9668 3.823554 30.95295 -0.781249
2005-04-22 08:17:41 51°9.742 2°39.256 16.9459 3.823448 30.952001 -0.781249
2005-04-22 08:17:47 51°9.733 2°39.22 16.9673 3.823448 30.952001 -0.781249
2005-04-22 08:17:51 51°9.727 2°39.194 16.9651 3.823448 30.952001 -0.781249
2005-04-22 08:17:56 51°9.719 2°39.164 16.9656 3.823448 30.952605 -0.781249
2005-04-22 08:18:02 51°9.711 2°39.131 16.9638 3.823343 30.951655 -0.781249
2005-04-22 08:18:07 51°9.704 2°39.102 16.9809 3.823237 30.95131 -0.781249
2005-04-22 08:18:11 51°9.697 2°39.075 16.9638 3.823237 30.951913 -0.74754
2005-04-22 08:18:17 51°9.689 2°39.042 16.9606 3.823237 30.951913 -0.781249
2005-04-22 08:18:22 51°9.682 2°39.015 16.9418 3.823237 30.951913 -0.781249
2005-04-22 08:18:27 51°9.674 2°38.984 16.9718 3.823132 30.951568 -0.781249
2005-04-22 08:18:32 51°9.665 2°38.954 16.9521 3.823237 30.95131 -0.781249
2005-04-22 08:18:37 51°9.658 2°38.925 16.9727 3.823027 30.950618 -0.781249
2005-04-22 08:18:42 51°9.651 2°38.898 16.9787 3.823132 30.951568 -0.781249
2005-04-22 08:18:47 51°9.643 2°38.866 16.9729 3.823027 30.950618 -0.781249
2005-04-22 08:18:52 51°9.635 2°38.836 16.9774 3.823027 30.950618 -0.781249
2005-04-22 08:18:56 51°9.628 2°38.81 16.9724 3.823132 30.952172 -0.781249
2005-04-22 08:19:02 51°9.62 2°38.78 16.9597 3.823027 30.951222 -0.781249
2005-04-22 08:19:07 51°9.611 2°38.745 16.9705 3.823027 30.951826 -0.781249
2005-04-22 08:19:12 51°9.603 2°38.716 16.9611 3.823027 30.951826 -0.814958
2005-04-22 08:19:17 51°9.597 2°38.689 16.9812 3.823132 30.952775 -0.781249
2005-04-22 08:19:22 51°9.589 2°38.66 16.9736 3.823132 30.952775 -0.781249
2005-04-22 08:19:27 51°9.581 2°38.631 16.9834 3.822816 30.950531 -0.781249
2005-04-22 08:19:31 51°9.574 2°38.605 16.9524 3.823132 30.953379 -0.814958
2005-04-22 08:19:38 51°9.565 2°38.569 16.9817 3.823027 30.953034 -0.781249
2005-04-22 08:19:42 51°9.559 2°38.545 16.9657 3.822921 30.95148 -0.781249
2005-04-22 08:19:47 51°9.55 2°38.514 16.9908 3.822816 30.951135 -0.781249
2005-04-22 08:19:52 51°9.543 2°38.485 16.9601 3.822816 30.951135 -0.781249
2005-04-22 08:19:57 51°9.536 2°38.455 16.9658 3.822921 30.952688 -0.781249
2005-04-22 08:20:02 51°9.527 2°38.423 16.9757 3.822816 30.951739 -0.814958
2005-04-22 08:20:07 51°9.52 2°38.396 16.9972 3.822816 30.951739 -0.781249
2005-04-22 08:20:12 51°9.513 2°38.367 17.0001 3.822921 30.952688 -0.814958
2005-04-22 08:20:17 51°9.505 2°38.337 16.9897 3.822816 30.952946 -0.781249
2005-04-22 08:20:21 51°9.499 2°38.314 16.9679 3.822816 30.952946 -0.781249
2005-04-22 08:20:27 51°9.489 2°38.276 16.9848 3.822816 30.952342 -0.814958
2005-04-22 08:20:31 51°9.483 2°38.253 16.9912 3.822816 30.952946 -0.781249
2005-04-22 08:20:38 51°9.474 2°38.217 17.0007 3.822711 30.951997 -0.814958
2005-04-22 08:20:42 51°9.466 2°38.188 16.9975 3.822711 30.952601 -0.781249
2005-04-22 08:20:47 51°9.459 2°38.162 17.0048 3.822605 30.951047 -0.781249
2005-04-22 08:20:52 51°9.452 2°38.132 17.0068 3.822605 30.951047 -0.781249
2005-04-22 08:20:56 51°9.445 2°38.106 16.9987 3.822605 30.951651 -0.781249
2005-04-22 08:21:02 51°9.436 2°38.071 17.0063 3.8225 30.951306 -0.781249
2005-04-22 08:21:07 51°9.429 2°38.045 16.9758 3.822605 30.952255 -0.781249
2005-04-22 08:21:11 51°9.423 2°38.018 16.9774 3.8225 30.951306 -0.781249
2005-04-22 08:21:17 51°9.414 2°37.987 17.0075 3.822394 30.95096 -0.814958
2005-04-22 08:21:22 51°9.407 2°37.957 17.0066 3.822394 30.95096 -0.814958
2005-04-22 08:21:27 51°9.399 2°37.928 17.0044 3.8225 30.95191 -0.781249
2005-04-22 08:21:32 51°9.391 2°37.899 16.9925 3.822394 30.951564 -0.814958
2005-04-22 08:21:37 51°9.384 2°37.87 17.006 3.822394 30.952168 -0.781249
2005-04-22 08:21:42 51°9.376 2°37.841 16.99 3.822394 30.951564 -0.814958
2005-04-22 08:21:47 51°9.369 2°37.812 17.0142 3.822289 30.950614 -0.781249
2005-04-22 08:21:51 51°9.362 2°37.786 16.9909 3.822289 30.950614 -0.781249
2005-04-22 08:21:57 51°9.353 2°37.754 16.9813 3.822289 30.951218 -0.781249
2005-04-22 08:22:02 51°9.345 2°37.722 17.0168 3.822289 30.951218 -0.781249
2005-04-22 08:22:07 51°9.338 2°37.697 17.0207 3.822289 30.951822 -0.814958
2005-04-22 08:22:12 51°9.33 2°37.667 16.9702 3.822289 30.951822 -0.781249
2005-04-22 08:22:16 51°9.323 2°37.642 17.021 3.822289 30.951822 -0.781249
2005-04-22 08:22:22 51°9.314 2°37.607 16.9996 3.822289 30.951822 -0.781249
2005-04-22 08:22:27 51°9.307 2°37.581 17.0049 3.822289 30.952426 -0.814958
2005-04-22 08:22:31 51°9.301 2°37.557 17.0098 3.822184 30.952081 -0.814958
2005-04-22 08:22:37 51°9.292 2°37.523 16.9781 3.822289 30.952426 -0.781249
2005-04-22 08:22:41 51°9.286 2°37.5 16.9465 3.822078 30.951131 -0.781249
2005-04-22 08:22:47 51°9.277 2°37.464 17.0032 3.821973 30.950785 -0.814958
2005-04-22 08:22:52 51°9.271 2°37.441 16.981 3.821973 30.950785 -0.814958
2005-04-22 08:22:57 51°9.265 2°37.417 16.9958 3.822184 30.953289 -0.781249
2005-04-22 08:23:01 51°9.261 2°37.398 16.9878 3.822078 30.952943 -0.781249
2005-04-22 08:23:07 51°9.254 2°37.371 17.005 3.821973 30.952597 -0.781249
2005-04-22 08:23:11 51°9.252 2°37.355 16.9753 3.822078 30.952943 -0.74754
2005-04-22 08:23:17 51°9.249 2°37.335 17.0115 3.821973 30.951993 -0.814958
2005-04-22 08:23:22 51°9.248 2°37.317 17.0059 3.821973 30.951993 -0.814958
2005-04-22 08:23:27 51°9.248 2°37.299 17.0153 3.821973 30.951993 -0.814958
2005-04-22 08:23:31 51°9.249 2°37.287 17.0216 3.821973 30.952597 -0.814958
2005-04-22 08:23:37 51°9.251 2°37.272 17.0315 3.821973 30.952597 -0.781249
2005-04-22 08:23:42 51°9.252 2°37.259 17.0384 3.821868 30.952252 -0.814958
2005-04-22 08:23:47 51°9.255 2°37.246 17.048 3.821657 30.950956 -0.781249
2005-04-22 08:23:51 51°9.257 2°37.237 17.0361 3.821657 30.950956 -0.781249
2005-04-22 08:23:58 51°9.26 2°37.225 17.0476 3.821762 30.95251 -0.781249
2005-04-22 08:24:01 51°9.261 2°37.219 17.0409 3.821762 30.95251 -0.781249
2005-04-22 08:24:07 51°9.264 2°37.209 17.0558 3.821762 30.95251 -0.814958
2005-04-22 08:24:11 51°9.266 2°37.203 17.0227 3.821868 30.95346 -0.781249
2005-04-22 08:24:17 51°9.269 2°37.196 17.0367 3.821551 30.951215 -0.814958
2005-04-22 08:24:21 51°9.271 2°37.191 17.0247 3.821551 30.951215 -0.814958
2005-04-22 08:24:27 51°9.273 2°37.185 17.0541 3.821657 30.952165 -0.781249
2005-04-22 08:24:31 51°9.275 2°37.181 17.0489 3.821551 30.951819 -0.781249
2005-04-22 08:24:37 51°9.277 2°37.177 17.0305 3.821657 30.952769 -0.74754
2005-04-22 08:24:42 51°9.279 2°37.174 17.0401 3.821341 30.949919 -0.781249
2005-04-22 08:24:47 51°9.28 2°37.171 17.0765 3.821341 30.950523 -0.781249
2005-04-22 08:24:52 51°9.281 2°37.169 17.076 3.821341 30.950523 -0.781249
2005-04-22 08:24:57 51°9.282 2°37.167 17.0546 3.821341 30.950523 -0.814958
2005-04-22 08:25:00 51°9.282 2°37.166 17.0584 3.821341 30.949919 -0.781249
2005-04-22 08:25:07 51°9.281 2°37.164 17.0582 3.821446 30.951473 -0.781249
2005-04-22 08:25:11 51°9.28 2°37.163 17.0613 3.821341 30.950523 -0.781249
2005-04-22 08:25:17 51°9.28 2°37.161 17.06 3.821235 30.950178 -0.781249
2005-04-22 08:25:21 51°9.279 2°37.161 17.0768 3.821235 30.950178 -0.781249
2005-04-22 08:25:27 51°9.279 2°37.16 17.072 3.821341 30.951128 -0.781249
2005-04-22 08:25:32 51°9.279 2°37.158 17.087 3.821235 30.950782 -0.781249
2005-04-22 08:25:38 51°9.278 2°37.157 17.0876 3.82113 30.949228 -0.814958
2005-04-22 08:25:42 51°9.277 2°37.156 17.0872 3.82113 30.949228 -0.781249
2005-04-22 08:25:47 51°9.277 2°37.155 17.0897 3.821235 30.950782 -0.814958
2005-04-22 08:25:51 51°9.277 2°37.155 17.083 3.821235 30.950782 -0.814958
2005-04-22 08:25:57 51°9.276 2°37.154 17.0851 3.82113 30.949832 -0.814958
2005-04-22 08:26:03 51°9.276 2°37.152 17.0818 3.821024 30.948882 -0.781249
2005-04-22 08:26:07 51°9.275 2°37.151 17.0762 3.821235 30.950782 -0.781249
2005-04-22 08:26:13 51°9.275 2°37.15 17.0859 3.821024 30.949486 -0.781249
2005-04-22 08:26:18 51°9.274 2°37.149 17.0738 3.82113 30.951645 -0.781249
2005-04-22 08:26:23 51°9.274 2°37.148 17.0921 3.82113 30.951645 -0.781249
2005-04-22 08:26:27 51°9.273 2°37.147 17.0981 3.82113 30.951645 -0.781249
2005-04-22 08:26:31 51°9.273 2°37.146 17.0945 3.821024 30.950695 -0.781249
2005-04-22 08:26:37 51°9.273 2°37.146 17.0817 3.820919 30.949745 -0.814958
2005-04-22 08:26:41 51°9.272 2°37.145 17.08 3.820919 30.949745 -0.781249
2005-04-22 08:26:47 51°9.272 2°37.143 17.0808 3.821024 30.950695 -0.781249
2005-04-22 08:26:52 51°9.271 2°37.143 17.1028 3.821024 30.950695 -0.781249
2005-04-22 08:26:57 51°9.271 2°37.142 17.093 3.821024 30.950695 -0.781249
2005-04-22 08:27:01 51°9.27 2°37.141 17.0815 3.820919 30.950349 -0.814958
2005-04-22 08:27:07 51°9.27 2°37.14 17.1101 3.820708 30.949053 -0.814958
2005-04-22 08:27:11 51°9.27 2°37.139 17.1012 3.820708 30.948449 -0.814958
2005-04-22 08:27:15 51°9.269 2°37.138 17.1016 3.820708 30.949053 -0.814958
2005-04-22 08:27:21 51°9.269 2°37.137 17.1103 3.820708 30.949053 -0.814958
2005-04-22 08:27:27 51°9.268 2°37.136 17.1016 3.820814 30.950607 -0.814958
2005-04-22 08:27:32 51°9.268 2°37.135 17.0887 3.820814 30.950607 -0.814958
2005-04-22 08:27:37 51°9.268 2°37.134 17.1074 3.820708 30.950262 -0.814958
2005-04-22 08:27:41 51°9.267 2°37.133 17.1155 3.820708 30.949657 -0.74754
2005-04-22 08:27:47 51°9.267 2°37.132 17.1186 3.820708 30.950262 -0.814958
2005-04-22 08:27:52 51°9.267 2°37.131 17.1142 3.820708 30.950262 -0.814958
2005-04-22 08:27:57 51°9.266 2°37.13 17.1191 3.820603 30.948708 -0.781249
2005-04-22 08:28:01 51°9.266 2°37.129 17.1123 3.820708 30.950262 -0.814958
2005-04-22 08:28:07 51°9.265 2°37.128 17.0959 3.820708 30.950262 -0.814958
2005-04-22 08:28:12 51°9.265 2°37.127 17.1108 3.820814 30.951212 -0.814958
2005-04-22 08:28:17 51°9.265 2°37.126 17.1007 3.820708 30.950262 -0.814958
2005-04-22 08:28:21 51°9.265 2°37.125 17.1153 3.820708 30.950262 -0.814958
2005-04-22 08:28:27 51°9.264 2°37.124 17.1159 3.820603 30.949312 -0.781249
2005-04-22 08:28:32 51°9.264 2°37.123 17.1201 3.820287 30.94767 -0.814958
2005-04-22 08:28:36 51°9.263 2°37.122 17.1227 3.820603 30.949916 -0.781249
2005-04-22 08:28:42 51°9.263 2°37.121 17.1139 3.820708 30.95147 -0.781249
2005-04-22 08:28:47 51°9.263 2°37.12 17.1199 3.820708 30.95147 -0.814958
2005-04-22 08:28:51 51°9.262 2°37.119 17.1351 3.820708 30.95147 -0.814958
2005-04-22 08:28:57 51°9.262 2°37.118 17.1248 3.820392 30.949225 -0.781249
2005-04-22 08:29:02 51°9.261 2°37.117 17.1144 3.820392 30.949225 -0.814958
2005-04-22 08:29:07 51°9.261 2°37.116 17.0975 3.820498 30.950779 -0.781249
2005-04-22 08:29:12 51°9.261 2°37.115 17.1302 3.820392 30.949829 -0.781249
2005-04-22 08:29:18 51°9.26 2°37.114 17.1296 3.820498 30.950779 -0.814958
2005-04-22 08:29:21 51°9.26 2°37.113 17.1185 3.820498 30.950779 -0.814958
2005-04-22 08:29:27 51°9.26 2°37.112 17.1313 3.820498 30.950779 -0.814958
2005-04-22 08:29:32 51°9.26 2°37.11 17.1276 3.820392 30.949829 -0.814958
2005-04-22 08:29:37 51°9.259 2°37.11 17.1257 3.820076 30.946979 -0.781249
2005-04-22 08:29:42 51°9.259 2°37.109 17.1217 3.820287 30.949483 -0.814958
2005-04-22 08:29:47 51°9.259 2°37.108 17.1193 3.820287 30.950087 -0.781249
2005-04-22 08:29:51 51°9.258 2°37.107 17.1349 3.820287 30.950087 -0.781249
2005-04-22 08:29:56 51°9.258 2°37.106 17.1358 3.820392 30.951037 -0.781249
2005-04-22 08:30:01 51°9.258 2°37.105 17.1411 3.820287 30.950087 -0.781249
2005-04-22 08:30:07 51°9.257 2°37.104 17.1423 3.820392 30.951642 -0.781249
2005-04-22 08:30:11 51°9.257 2°37.103 17.1422 3.820287 30.950692 -0.74754
2005-04-22 08:30:17 51°9.257 2°37.102 17.1329 3.820181 30.949137 -0.814958
2005-04-22 08:30:22 51°9.256 2°37.101 17.1496 3.820181 30.949137 -0.814958
2005-04-22 08:30:27 51°9.256 2°37.1 17.1549 3.819865 30.946891 -0.781249
2005-04-22 08:30:31 51°9.256 2°37.099 17.144 3.820181 30.950346 -0.781249
2005-04-22 08:30:37 51°9.255 2°37.098 17.1464 3.820181 30.950346 -0.814958
2005-04-22 08:30:41 51°9.255 2°37.097 17.1473 3.819971 30.948446 -0.781249
2005-04-22 08:30:47 51°9.255 2°37.096 17.1541 3.819971 30.94905 -0.814958
2005-04-22 08:30:51 51°9.254 2°37.095 17.1542 3.819971 30.94905 -0.814958
2005-04-22 08:30:57 51°9.254 2°37.095 17.1388 3.819971 30.94905 -0.781249
2005-04-22 08:31:02 51°9.253 2°37.094 17.1566 3.820076 30.95 -0.781249
2005-04-22 08:31:07 51°9.253 2°37.092 17.1461 3.820076 30.95 -0.814958
2005-04-22 08:31:11 51°9.253 2°37.092 17.1548 3.819865 30.9481 -0.781249
2005-04-22 08:31:17 51°9.252 2°37.091 17.1531 3.819865 30.948704 -0.781249
2005-04-22 08:31:22 51°9.252 2°37.089 17.1497 3.819865 30.948704 -0.781249
2005-04-22 08:31:27 51°9.252 2°37.088 17.1443 3.819865 30.948704 -0.781249
2005-04-22 08:31:32 51°9.251 2°37.087 17.141 3.819865 30.948704 -0.781249
2005-04-22 08:31:36 51°9.251 2°37.087 17.1448 3.81976 30.947754 -0.814958
2005-04-22 08:31:43 51°9.251 2°37.085 17.1579 3.819865 30.948704 -0.781249
2005-04-22 08:31:47 51°9.25 2°37.084 17.1608 3.820076 30.950605 -0.814958
2005-04-22 08:31:52 51°9.25 2°37.083 17.1355 3.820076 30.950605 -0.814958
2005-04-22 08:31:57 51°9.25 2°37.083 17.1589 3.819865 30.949309 -0.814958
2005-04-22 08:32:02 51°9.249 2°37.082 17.1494 3.819865 30.949309 -0.781249
2005-04-22 08:32:07 51°9.249 2°37.081 17.1413 3.819865 30.949309 -0.781249
2005-04-22 08:32:12 51°9.249 2°37.08 17.1648 3.81976 30.948963 -0.814958
2005-04-22 08:32:17 51°9.249 2°37.079 17.1542 3.819865 30.949913 -0.781249
2005-04-22 08:32:20 51°9.248 2°37.078 17.1566 3.819865 30.949913 -0.781249
2005-04-22 08:32:27 51°9.248 2°37.077 17.1679 3.819971 30.951468 -0.814958
2005-04-22 08:32:32 51°9.247 2°37.076 17.1397 3.819865 30.949913 -0.781249
2005-04-22 08:32:37 51°9.247 2°37.075 17.1571 3.81976 30.949567 -0.781249
2005-04-22 08:32:41 51°9.247 2°37.074 17.1474 3.819865 30.950518 -0.781249
2005-04-22 08:32:47 51°9.246 2°37.073 17.1443 3.819865 30.950518 -0.781249
2005-04-22 08:32:51 51°9.246 2°37.072 17.1765 3.819865 30.950518 -0.781249
2005-04-22 08:32:57 51°9.246 2°37.071 17.1703 3.819971 30.952072 -0.781249
2005-04-22 08:33:01 51°9.246 2°37.07 17.1523 3.819654 30.949222 -0.781249
2005-04-22 08:33:07 51°9.245 2°37.069 17.1651 3.81976 30.950172 -0.781249
2005-04-22 08:33:11 51°9.245 2°37.068 17.172 3.819865 30.951122 -0.781249
2005-04-22 08:33:18 51°9.244 2°37.067 17.1547 3.819971 30.952072 -0.74754
2005-04-22 08:33:21 51°9.244 2°37.067 16.2429 3.819971 30.952072 -0.74754
2005-04-22 08:33:27 51°9.244 2°37.065 11.0552 3.819865 30.951727 -0.814958
2005-04-22 08:33:31 51°9.243 2°37.064 10.3384 3.811435 30.939782 2.050341
2005-04-22 08:33:36 51°9.243 2°37.064 10.1658 3.768964 30.671216 1.072768
2005-04-22 08:33:42 51°9.243 2°37.063 9.9707 3.703309 30.033573 8.960768
2005-04-22 08:33:47 51°9.242 2°37.062 9.8284 3.499402 26.522725 10.747366
2005-04-22 08:33:51 51°9.242 2°37.061 9.7714 3.499402 26.522725 10.747366
2005-04-22 08:33:57 51°9.242 2°37.06 9.689 3.6212 27.858104 8.927059
2005-04-22 08:34:02 51°9.241 2°37.06 9.6834 3.650517 29.594894 10.882204
2005-04-22 08:34:07 51°9.241 2°37.058 9.6737 3.741694 32.083183 16.073452
2005-04-22 08:34:12 51°9.241 2°37.058 9.6264 3.688593 32.411221 15.129589
2005-04-22 08:34:17 51°9.241 2°37.057 9.6418 3.675954 32.76513 14.354272
2005-04-22 08:34:22 51°9.24 2°37.056 9.5785 3.675954 32.76513 14.354272
2005-04-22 08:34:27 51°9.24 2°37.055 9.5868 3.61948 32.560307 13.477828
2005-04-22 08:34:31 51°9.24 2°37.055 9.5817 3.609261 32.628843 13.140734
2005-04-22 08:34:36 51°9.239 2°37.054 9.5703 3.591035 32.569179 12.76993
2005-04-22 08:34:41 51°9.239 2°37.053 9.5876 3.603258 32.784956 12.76993
2005-04-22 08:34:47 51°9.238 2°37.052 9.5639 3.599887 32.796531 12.23058
2005-04-22 08:34:52 51°9.238 2°37.051 9.5656 3.599887 32.796531 12.23058
2005-04-22 08:34:57 51°9.238 2°37.051 9.5417 3.585769 32.702129 12.331708
2005-04-22 08:35:01 51°9.238 2°37.05 9.5386 3.581239 32.701897 12.567674
2005-04-22 08:35:07 51°9.237 2°37.049 9.5515 2.25067 19.611689 12.567674
2005-04-22 08:35:11 51°9.237 2°37.049 9.5355 3.591038 32.838444 13.073315
2005-04-22 08:35:17 51°9.237 2°37.048 9.5274 3.584084 32.773683 12.466546
2005-04-22 08:35:21 51°9.236 2°37.047 9.5286 3.584084 32.773683 12.466546
2005-04-22 08:35:27 51°9.236 2°37.046 9.5328 3.588826 32.845645 13.140734
2005-04-22 08:35:32 51°9.236 2°37.046 9.5164 3.589458 32.867693 12.904768
2005-04-22 08:35:37 51°9.235 2°37.045 9.5267 3.57555 32.743201 13.241862
2005-04-22 08:35:42 51°9.235 2°37.044 9.5175 3.58556 32.850318 13.477828
2005-04-22 08:35:47 51°9.234 2°37.043 9.5129 3.579765 32.799476 13.241862
2005-04-22 08:35:51 51°9.234 2°37.042 9.4979 3.579765 32.799476 13.241862
2005-04-22 08:35:57 51°9.234 2°37.042 9.4861 3.576499 32.775123 13.444118
2005-04-22 08:36:02 51°9.234 2°37.041 9.4954 3.576078 32.780488 13.646375
2005-04-22 08:36:07 51°9.233 2°37.041 9.4954 3.575762 32.783214 13.3767
2005-04-22 08:36:11 51°9.233 2°37.04 9.4985 3.575972 32.79131 14.017178
2005-04-22 08:36:17 51°9.232 2°37.039 9.4958 3.582189 32.863628 14.286853
2005-04-22 08:36:20 51°9.232 2°37.039 9.4947 3.582189 32.863628 14.286853
2005-04-22 08:36:27 51°9.232 2°37.038 9.4847 3.581978 32.872667 13.814922
2005-04-22 08:36:31 51°9.232 2°37.037 9.4994 3.58535 32.914539 13.91605
2005-04-22 08:36:37 51°9.231 2°37.037 9.4819 3.582927 32.899518 14.623947
2005-04-22 08:36:41 51°9.231 2°37.036 9.4815 3.583243 32.904239 13.848631
2005-04-22 08:36:47 51°9.231 2°37.036 9.4856 3.582189 32.893483 13.814922
2005-04-22 08:36:51 51°9.23 2°37.035 9.4903 3.582189 32.893483 13.814922
2005-04-22 08:36:57 51°9.23 2°37.034 9.478 3.582821 32.901431 14.017178
2005-04-22 08:37:01 51°9.23 2°37.034 9.4706 3.405413 31.101638 13.91605
2005-04-22 08:37:07 51°9.229 2°37.033 9.4776 3.452184 31.575205 14.219435
2005-04-22 08:37:12 51°9.229 2°37.032 9.4695 3.462823 31.688271 13.949759
2005-04-22 08:37:17 51°9.228 2°37.031 9.4797 3.498852 32.059623 14.961042
2005-04-22 08:37:21 51°9.228 2°37.03 9.4674 3.498852 32.059623 14.961042
2005-04-22 08:37:27 51°9.228 2°37.03 9.4648 3.462718 31.692239 14.623947
2005-04-22 08:37:31 51°9.227 2°37.029 9.4831 3.436066 31.425213 14.219435
2005-04-22 08:37:37 51°9.227 2°37.028 9.473 3.496008 32.042328 13.949759
2005-04-22 08:37:42 51°9.227 2°37.028 9.4777 3.392773 30.997553 13.646375
2005-04-22 08:37:47 51°9.226 2°37.027 9.4746 3.483261 31.919153 13.814922
2005-04-22 08:37:51 51°9.226 2°37.027 9.4707 3.483261 31.919153 13.814922
2005-04-22 08:37:58 51°9.226 2°37.026 9.4732 3.431432 31.394582 14.084597
2005-04-22 08:38:02 51°9.225 2°37.026 9.4727 3.460717 31.695664 13.713794
2005-04-22 08:38:07 51°9.225 2°37.025 9.473 3.501276 32.107621 14.084597
2005-04-22 08:38:11 51°9.224 2°37.024 9.4657 3.394037 31.018817 13.3767
2005-04-22 08:38:18 51°9.224 2°37.024 9.4628 3.470935 31.802459 13.882341
2005-04-22 08:38:22 51°9.224 2°37.023 9.4712 3.470935 31.802459 13.882341
2005-04-22 08:38:27 51°9.224 2°37.023 9.4651 3.418054 31.26308 13.241862
2005-04-22 08:38:32 51°9.223 2°37.022 9.4666 3.494744 32.045483 13.680084
2005-04-22 08:38:37 51°9.223 2°37.022 9.465 3.487264 31.969333 14.084597
2005-04-22 08:38:41 51°9.223 2°37.021 9.47 3.431116 31.399938 13.612665
2005-04-22 08:38:47 51°9.222 2°37.02 9.4755 3.470409 31.802886 14.522819
2005-04-22 08:38:51 51°9.222 2°37.019 9.4665 3.470409 31.802886 14.522819
2005-04-22 08:38:57 51°9.222 2°37.019 9.4655 3.458294 31.681117 14.387982
2005-04-22 08:39:01 51°9.222 2°37.018 9.4681 3.444494 31.541559 14.219435
2005-04-22 08:39:07 51°9.221 2°37.017 9.4627 3.490319 32.007711 13.781212
2005-04-22 08:39:12 51°9.221 2°37.016 9.467 2.738697 24.485711 14.253144
2005-04-22 08:39:18 51°9.221 2°37.016 9.4716 3.424058 31.336833 14.253144
2005-04-22 08:39:22 51°9.22 2°37.015 9.4638 3.424058 31.336833 14.253144
2005-04-22 08:39:27 51°9.22 2°37.015 9.4666 3.460928 31.711502 13.477828
2005-04-22 08:39:31 51°9.22 2°37.014 9.4639 3.336212 30.449392 14.387982
2005-04-22 08:39:36 51°9.22 2°37.014 9.4672 3.438279 31.483421 14.286853
2005-04-22 08:39:41 51°9.219 2°37.013 9.4659 3.472516 31.836628 14.118306
2005-04-22 08:39:47 51°9.219 2°37.012 9.4633 2.780994 24.906154 13.275571
2005-04-22 08:39:51 51°9.219 2°37.012 9.4689 2.780994 24.906154 13.275571
2005-04-22 08:39:57 51°9.218 2°37.011 9.4643 3.438806 31.490921 13.882341
2005-04-22 08:40:02 51°9.218 2°37.011 9.4651 3.421635 31.317219 14.253144
2005-04-22 08:40:07 51°9.218 2°37.01 9.4626 3.45092 31.616934 14.354272
2005-04-22 08:40:12 51°9.217 2°37.009 9.4726 3.435014 31.455965 14.556529
2005-04-22 08:40:17 51°9.217 2°37.009 9.4679 3.489161 32.007559 14.152016
2005-04-22 08:40:22 51°9.217 2°37.008 9.4684 3.489161 32.007559 14.152016
2005-04-22 08:40:27 51°9.217 2°37.008 9.4687 3.458505 31.69407 13.208153
2005-04-22 08:40:32 51°9.217 2°37.007 9.4643 3.476835 31.881319 14.758785
2005-04-22 08:40:37 51°9.216 2°37.007 9.4673 3.4584 31.696603 14.084597
2005-04-22 08:40:42 51°9.216 2°37.006 9.4628 3.458505 31.698396 14.354272
2005-04-22 08:40:47 51°9.216 2°37.005 9.4597 3.458294 31.69409 13.848631
2005-04-22 08:40:51 51°9.216 2°37.004 9.4665 3.458294 31.69409 13.848631
2005-04-22 08:40:57 51°9.216 2°37.003 9.4622 3.462613 31.742362 15.702648
2005-04-22 08:41:01 51°9.216 2°37.002 9.4583 3.395091 31.056314 15.770067
2005-04-22 08:41:07 51°9.216 2°37 9.4636 3.441018 31.522722 15.736358
2005-04-22 08:41:12 51°9.216 2°36.999 9.458 3.459558 31.712721 15.871195
2005-04-22 08:41:17 51°9.217 2°36.997 9.4592 3.477573 31.895357 15.60152
2005-04-22 08:41:21 51°9.217 2°36.995 9.466 3.477573 31.895357 15.60152
2005-04-22 08:41:27 51°9.218 2°36.992 9.4616 3.455345 31.670572 15.938614
2005-04-22 08:41:32 51°9.219 2°36.99 9.4661 3.452184 31.638424 16.039742
2005-04-22 08:41:36 51°9.22 2°36.987 9.4756 3.387401 30.981843 15.736358
2005-04-22 08:41:42 51°9.221 2°36.984 9.4668 3.456293 31.680938 15.668939
2005-04-22 08:41:47 51°9.222 2°36.981 9.4727 3.476624 31.890057 16.241999
2005-04-22 08:41:51 51°9.223 2°36.979 9.4769 3.476624 31.890057 16.241999
2005-04-22 08:41:57 51°9.225 2°36.977 9.481 3.355697 30.661902 15.60152
2005-04-22 08:42:02 51°9.227 2°36.974 9.4813 3.455134 31.671311 16.275708
2005-04-22 08:42:07 51°9.229 2°36.971 9.4872 3.425006 31.36429 15.736358
2005-04-22 08:42:12 51°9.23 2°36.968 9.488 3.408784 31.196696 15.904905
2005-04-22 08:42:17 51°9.232 2°36.966 9.4938 3.452711 31.642342 15.736358
2005-04-22 08:42:22 51°9.234 2°36.963 9.499 3.452711 31.642342 15.736358
2005-04-22 08:42:27 51°9.237 2°36.961 9.499 3.432169 31.432072 15.399264
2005-04-22 08:42:32 51°9.239 2°36.958 9.5038 3.431011 31.418153 15.298136
2005-04-22 08:42:38 51°9.241 2°36.956 9.506 3.43691 31.475233 15.095879
2005-04-22 08:42:41 51°9.243 2°36.954 9.5112 3.509388 32.20929 15.163298
2005-04-22 08:42:47 51°9.247 2°36.951 9.5116 3.423215 31.330414 15.095879
2005-04-22 08:42:51 51°9.249 2°36.949 9.5108 3.423215 31.330414 15.095879
2005-04-22 08:42:57 51°9.252 2°36.947 9.5121 3.440491 31.502317 14.792494
2005-04-22 08:43:01 51°9.254 2°36.945 9.5133 3.421109 31.301905 14.657657
2005-04-22 08:43:07 51°9.258 2°36.943 9.5173 3.431958 31.409209 14.185725
2005-04-22 08:43:11 51°9.26 2°36.942 9.5165 3.406888 31.151229 14.084597
2005-04-22 08:43:17 51°9.264 2°36.94 9.5136 2.62687 23.377542 13.882341
2005-04-22 08:43:22 51°9.267 2°36.939 9.5102 2.62687 23.377542 13.882341
2005-04-22 08:43:27 51°9.27 2°36.938 9.5143 3.043059 27.485817 13.208153
2005-04-22 08:43:32 51°9.273 2°36.936 9.5234 3.168136 28.737542 12.668802
2005-04-22 08:43:37 51°9.276 2°36.936 9.5179 3.408152 31.156968 12.399127
2005-04-22 08:43:41 51°9.279 2°36.935 9.5146 3.457872 31.660274 11.927195
2005-04-22 08:43:47 51°9.284 2°36.935 9.5228 3.466932 31.753804 11.893486
2005-04-22 08:43:51 51°9.286 2°36.934 9.5173 3.466932 31.753804 11.893486
2005-04-22 08:43:57 51°9.29 2°36.934 9.5199 3.431853 31.39886 11.488973
2005-04-22 08:44:02 51°9.293 2°36.934 9.5225 3.459347 31.678142 11.11817